14/10/18
Time         Wind Dir  Wind Gust   Humidity       Temp   Tot Rain Wind Chill Heat Index  Dew Point   Barom SL Temp Out H Temp Out L  DailyRain   HourRain   24HrRain   RainRate   Wind Run   Deg Heat   Deg Cool  MonthRain
                          km/hr          %         C         mm         C         C         C         mb         C         C         mm         mm         mm      mm/hr         km         C         C         mm
0:00              215       12.9         77       20.4      467.6       18.8       22.5       16.2     1008.4       20.4       20.4        0.0        0.0        0.0       0.00      151.9       0.02       2.39        0.2
0:02              222       12.9         77       20.4      467.6       19.7       22.5       16.2     1008.4       20.4       20.4        0.0        0.0        0.0       0.00        0.4       0.00       0.00        0.2
0:04              220       14.5         77       20.3      467.6       19.6       22.5       16.2     1008.4       20.4       20.3        0.0        0.0        0.0       0.00        0.8       0.00       0.00        0.2
0:06              227       19.3         77       20.3      467.6       18.7       22.5       16.2     1008.5       20.4       20.3        0.0        0.0        0.0       0.00        1.2       0.00       0.00        0.2
0:08              226       16.1         78       20.3      467.6       17.8       22.5       16.4     1008.6       20.4       20.3        0.0        0.0        0.0       0.00        1.6       0.00       0.00        0.2
0:10              221       17.7         78       20.3      467.6       17.8       22.5       16.4     1008.7       20.4       20.3        0.0        0.0        0.0       0.00        2.1       0.00       0.00        0.2
0:12              220       16.1         78       20.3      467.6       18.2       22.5       16.4     1008.7       20.4       20.3        0.0        0.0        0.0       0.00        2.5       0.00       0.00        0.2
0:14              229       17.7         78       20.3      467.6       17.1       22.5       16.4     1008.6       20.4       20.3        0.0        0.0        0.0       0.00        2.9       0.00       0.00        0.2
0:16              208       19.3         78       20.3      467.6       20.3       22.5       16.4     1008.7       20.4       20.3        0.0        0.0        0.0       0.00        3.3       0.00       0.00        0.2
0:18              227       14.5         78       20.3      467.6       18.6       22.5       16.3     1008.8       20.4       20.3        0.0        0.0        0.0       0.00        3.7       0.00       0.00        0.2
0:20              225       20.9         78       20.3      467.6       18.2       22.5       16.3     1008.8       20.4       20.3        0.0        0.0        0.0       0.00        4.2       0.00       0.00        0.2
0:22              215       20.9         78       20.3      467.6       16.5       22.5       16.3     1008.8       20.4       20.3        0.0        0.0        0.0       0.00        4.6       0.00       0.00        0.2
0:24              225       11.3         78       20.3      467.6       18.6       22.5       16.3     1008.7       20.4       20.3        0.0        0.0        0.0       0.00        4.9       0.00       0.00        0.2
0:26              234       16.1         78       20.2      467.6       18.6       22.4       16.3     1008.7       20.4       20.2        0.0        0.0        0.0       0.00        5.3       0.00       0.00        0.2
0:28              228       16.1         78       20.2      467.6       17.2       22.4       16.3     1008.7       20.4       20.2        0.0        0.0        0.0       0.00        5.7       0.00       0.00        0.2
0:29              229       17.7         78       20.2      467.6       16.9       22.4       16.2     1008.8       20.4       20.2        0.0        0.0        0.0       0.00        6.1       0.00       0.00        0.2
0:32              230       16.1         78       20.2      467.6       18.5       22.4       16.2     1008.8       20.4       20.2        0.0        0.0        0.0       0.00        6.5       0.00       0.00        0.2
0:34              234        9.7         78       20.1      467.6       18.9       22.3       16.2     1008.9       20.4       20.1        0.0        0.0        0.0       0.00        6.8       0.00       0.00        0.2
0:36              217       20.9         78       20.1      467.6       17.0       22.3       16.1     1008.8       20.4       20.1        0.0        0.0        0.0       0.00        7.2       0.00       0.00        0.2
0:38              237       22.5         79       20.1      467.6       18.4       22.3       16.3     1008.8       20.4       20.1        0.0        0.0        0.0       0.00        7.5       0.00       0.00        0.2
0:40              223       12.9         79       20.0      467.6       20.0       22.3       16.3     1008.8       20.4       20.0        0.0        0.0        0.0       0.00        7.9       0.00       0.00        0.2
0:42              225       11.3         79       19.9      467.6       18.3       22.2       16.2     1008.8       20.4       19.9        0.0        0.0        0.0       0.00        8.2       0.00       0.00        0.2
0:44              232        9.7         79       19.9      467.6       19.2       22.2       16.2     1008.9       20.4       19.9        0.0        0.0        0.0       0.00        8.5       0.00       0.00        0.2
0:46              232       11.3         79       19.9      467.6       18.2       22.2       16.1     1008.8       20.4       19.9        0.0        0.0        0.0       0.00        8.8       0.00       0.00        0.2
0:48              229       12.9         79       19.9      467.6       18.7       22.2       16.1     1008.9       20.4       19.9        0.0        0.0        0.0       0.00        9.1       0.00       0.00        0.2
0:50              219        8.0         79       19.8      467.6       19.8       22.1       16.1     1008.8       20.4       19.8        0.0        0.0        0.0       0.00        9.5       0.00       0.00        0.2
0:52              224       11.3         79       19.8      467.6       18.1       22.1       16.1     1008.8       20.4       19.8        0.0        0.0        0.0       0.00        9.9       0.00       0.00        0.2
0:54              227        9.7         79       19.8      467.6       19.1       22.1       16.1     1008.7       20.4       19.8        0.0        0.0        0.0       0.00       10.3       0.00       0.00        0.2
0:56              217       12.9         79       19.8      467.6       19.8       22.1       16.1     1008.7       20.4       19.8        0.0        0.0        0.0       0.00       10.6       0.00       0.00        0.2
0:58              216       14.5         80       19.8      467.6       18.6       22.2       16.3     1008.7       20.4       19.8        0.0        0.0        0.0       0.00       11.0       0.00       0.00        0.2
1:00              219       16.1         80       19.8      467.6       17.2       22.2       16.3     1008.7       20.4       19.8        0.0        0.0        0.0       0.00       11.4       0.00       0.00        0.2
1:02              204       14.5         80       19.9      467.6       19.9       22.2       16.3     1008.6       20.4       19.8        0.0        0.0        0.0       0.00       11.7       0.00       0.00        0.2
1:04              207       19.3         80       19.9      467.6       16.8       22.2       16.3     1008.5       20.4       19.8        0.0        0.0        0.0       0.00       12.2       0.00       0.00        0.2
1:06              211        9.7         80       19.9      467.6       19.2       22.3       16.4     1008.6       20.4       19.8        0.0        0.0        0.0       0.00       12.5       0.00       0.00        0.2
1:08              209       17.7         80       20.0      467.6       16.6       22.3       16.4     1008.6       20.4       19.8        0.0        0.0        0.0       0.00       12.9       0.00       0.00        0.2
1:10              217       24.1         80       20.1      467.6       16.7       22.4       16.5     1008.6       20.4       19.8        0.0        0.0        0.0       0.00       13.3       0.00       0.00        0.2
1:12              192       25.7         80       20.1      467.6       17.5       22.5       16.6     1008.5       20.4       19.8        0.0        0.0        0.0       0.00       13.8       0.00       0.00        0.2
1:14              198       16.1         80       20.2      467.6       18.0       22.5       16.6     1008.5       20.4       19.8        0.0        0.0        0.0       0.00       14.3       0.00       0.00        0.2
1:16              177       27.4         79       20.2      467.6       15.4       22.5       16.5     1008.5       20.4       19.8        0.0        0.0        0.0       0.00       14.8       0.00       0.00        0.2
1:18              200       19.3         79       20.3      467.6       17.7       22.6       16.5     1008.6       20.4       19.8        0.0        0.0        0.0       0.00       15.3       0.00       0.00        0.2
1:20              186       16.1         79       20.3      467.6       20.3       22.6       16.6     1008.5       20.4       19.8        0.0        0.0        0.0       0.00       15.8       0.00       0.00        0.2
1:22              194       14.5         79       20.4      467.6       19.2       22.7       16.6     1008.6       20.4       19.8        0.0        0.0        0.0       0.00       16.2       0.00       0.00        0.2
1:24              198       20.9         79       20.5      467.6       17.5       22.8       16.7     1008.6       20.5       19.8        0.0        0.0        0.0       0.00       16.7       0.00       0.00        0.2
1:26              176       19.3         79       20.6      467.6       20.6       22.8       16.8     1008.5       20.6       19.8        0.0        0.0        0.0       0.00       17.3       0.00       0.00        0.2
1:28              180       17.7         79       20.6      467.6       18.6       22.9       16.8     1008.5       20.6       19.8        0.0        0.0        0.0       0.00       17.7       0.00       0.00        0.2
1:30              172       20.9         79       20.6      467.6       16.9       22.9       16.8     1008.4       20.6       19.8        0.0        0.0        0.0       0.00       18.4       0.00       0.00        0.2
1:32              196       32.2         79       20.7      467.6       17.7       22.9       16.9     1008.3       20.7       19.8        0.0        0.0        0.0       0.00       19.0       0.00       0.00        0.2
1:34              203       20.9         79       20.7      467.6       18.6       22.9       16.9     1008.3       20.7       19.8        0.0        0.0        0.0       0.00       19.6       0.00       0.00        0.2
1:36              179       33.8         79       20.7      467.6       15.2       22.9       16.9     1008.4       20.7       19.8        0.0        0.0        0.0       0.00       20.1       0.00       0.00        0.2
1:38              202       22.5         79       20.7      467.6       17.0       22.9       16.9     1008.4       20.7       19.8        0.0        0.0        0.0       0.00       20.8       0.00       0.00        0.2
1:40              167       22.5         79       20.7      467.6       16.7       22.9       16.9     1008.3       20.7       19.8        0.0        0.0        0.0       0.00       21.5       0.00       0.00        0.2
1:42              185       17.7         79       20.7      467.6       18.7       23.0       17.0     1008.2       20.7       19.8        0.0        0.0        0.0       0.00       22.1       0.00       0.00        0.2
1:44              187       22.5         79       20.7      467.6       18.6       22.9       16.9     1008.1       20.7       19.8        0.0        0.0        0.0       0.00       22.9       0.00       0.00        0.2
1:46              193       29.0         80       20.7      467.6       17.2       23.0       17.1     1008.0       20.7       19.8        0.0        0.0        0.0       0.00       23.5       0.00       0.00        0.2
1:48              199       22.5         80       20.7      467.6       17.7       23.0       17.1     1007.9       20.7       19.8        0.0        0.0        0.0       0.00       24.2       0.00       0.00        0.2
1:50              173       27.4         80       20.7      467.6       16.7       23.0       17.1     1007.9       20.7       19.8        0.0        0.0        0.0       0.00       24.9       0.00       0.00        0.2
1:52              184       33.8         80       20.7      467.6       16.7       23.0       17.1     1008.0       20.7       19.8        0.0        0.0        0.0       0.00       25.6       0.00       0.00        0.2
1:54              211       27.4         80       20.7      467.6       16.0       23.0       17.1     1008.0       20.7       19.8        0.0        0.0        0.0       0.00       26.3       0.00       0.00        0.2
1:56              187       16.1         80       20.7      467.6       18.6       23.0       17.1     1008.1       20.7       19.8        0.0        0.0        0.0       0.00       26.9       0.00       0.00        0.2
1:58              190       27.4         80       20.6      467.6       17.4       23.0       17.0     1008.0       20.7       19.8        0.0        0.0        0.0       0.00       27.5       0.00       0.00        0.2
2:00              173       25.7         80       20.6      467.6       17.2       23.0       17.0     1008.0       20.7       19.8        0.0        0.0        0.0       0.00       28.0       0.00       0.00        0.2
2:02              182       46.7         80       20.7      467.6       14.9       23.0       17.1     1008.0       20.7       19.8        0.0        0.0        0.0       0.00       28.7       0.00       0.00        0.2
2:04              183       24.1         81       20.7      467.6       17.5       23.1       17.3     1008.0       20.7       19.8        0.0        0.0        0.0       0.00       29.5       0.00       0.00        0.2
2:06              213       29.0         81       20.7      467.6       16.8       23.1       17.3     1008.1       20.7       19.8        0.0        0.0        0.0       0.00       30.1       0.00       0.00        0.2
2:08              254       22.5         81       20.7      467.6       16.8       23.1       17.3     1008.3       20.7       19.8        0.0        0.0        0.0       0.00       30.6       0.00       0.00        0.2
2:10              265       25.7         81       20.8      467.6       18.3       23.2       17.4     1009.2       20.8       19.8        0.0        0.0        0.0       0.00       31.2       0.00       0.00        0.2
2:12              284       20.9         81       20.6      469.0       17.4       23.0       17.2     1009.6       20.8       19.8        1.4        1.4        1.4     113.00       32.1       0.00       0.00        1.6
2:14              275       16.1         81       20.1      470.6       17.0       22.5       16.8     1009.2       20.8       19.8        3.0        3.0        3.0      19.20       32.6       0.00       0.00        3.2
2:16              272       19.3         83       19.7      471.0       18.4       22.2       16.7     1009.1       20.8       19.7        3.4        3.4        3.4      12.40       33.0       0.00       0.00        3.6
2:18              273       17.7         84       19.3      471.0       15.8       22.0       16.6     1008.9       20.8       19.3        3.4        3.4        3.4       3.80       33.3       0.00       0.00        3.6
2:20              284       11.3         85       19.1      471.0       17.8       21.8       16.5     1008.9       20.8       19.1        3.4        3.4        3.4       2.40       33.5       0.00       0.00        3.6
2:22              269       11.3         86       18.9      471.0       18.9       21.8       16.6     1008.8       20.8       18.9        3.4        3.4        3.4       1.60       33.7       0.00       0.00        3.6
2:24              275        1.6         87       18.8      471.0       18.8       21.7       16.6     1008.7       20.8       18.8        3.4        3.4        3.4       1.40       33.8       0.00       0.00        3.6
2:26              275        4.8         87       18.7      471.0       18.7       21.6       16.5     1008.7       20.8       18.7        3.4        3.4        3.4       1.00       33.9       0.00       0.00        3.6
2:28              273       11.3         87       18.7      471.0       18.7       21.6       16.5     1008.8       20.8       18.7        3.4        3.4        3.4       1.00       34.1       0.00       0.00        3.6
2:30              259       11.3         88       18.6      471.0       18.6       21.6       16.6     1008.8       20.8       18.6        3.4        3.4        3.4       0.80       34.3       0.00       0.00        3.6
2:32              246        6.4         88       18.6      471.0       18.6       21.5       16.5     1008.7       20.8       18.6        3.4        3.4        3.4       0.00       34.6       0.00       0.00        3.6
2:34              245        6.4         88       18.5      471.0       18.5       21.5       16.5     1008.7       20.8       18.5        3.4        3.4        3.4       0.00       34.7       0.00       0.00        3.6
2:36              253        8.0         89       18.4      471.0       17.6       21.5       16.6     1008.8       20.8       18.4        3.4        3.4        3.4       0.00       35.0       0.00       0.00        3.6
2:38              251       12.9         89       18.4      471.0       16.6       21.5       16.6     1008.6       20.8       18.4        3.4        3.4        3.4       0.00       35.2       0.00       0.00        3.6
2:40              244       11.3         89       18.4      471.0       18.4       21.4       16.5     1008.5       20.8       18.4        3.4        3.4        3.4       0.00       35.4       0.00       0.00        3.6
2:42              243        4.8         89       18.3      471.0       18.3       21.4       16.5     1008.5       20.8       18.3        3.4        3.4        3.4       0.00       35.6       0.00       0.00        3.6
2:44              246        8.0         89       18.3      471.0       18.3       21.4       16.5     1008.5       20.8       18.3        3.4        3.4        3.4       0.00       35.8       0.00       0.00        3.6
2:46              253        6.4         89       18.3      471.0       18.3       21.3       16.4     1008.5       20.8       18.3        3.4        3.4        3.4       0.00       36.1       0.00       0.00        3.6
2:48              240        9.7         90       18.2      471.0       18.2       21.4       16.6     1008.5       20.8       18.2        3.4        3.4        3.4       0.00       36.3       0.00       0.00        3.6
2:50              242        9.7         90       18.2      471.0       16.9       21.4       16.6     1008.6       20.8       18.2        3.4        3.4        3.4       0.00       36.5       0.00       0.00        3.6
2:52              245       14.5         90       18.2      471.0       15.8       21.4       16.6     1008.7       20.8       18.2        3.4        3.4        3.4       0.00       36.8       0.00       0.00        3.6
2:54              236       12.9         90       18.2      471.0       16.9       21.4       16.6     1008.7       20.8       18.2        3.4        3.4        3.4       0.00       37.0       0.00       0.00        3.6
2:56              239        8.0         90       18.2      471.0       18.2       21.4       16.6     1008.7       20.8       18.2        3.4        3.4        3.4       0.00       37.3       0.00       0.00        3.6
2:58              260       14.5         90       18.2      471.0       15.2       21.4       16.6     1008.8       20.8       18.2        3.4        3.4        3.4       0.00       37.6       0.00       0.00        3.6
3:00              257       14.5         90       18.2      471.0       18.2       21.4       16.6     1008.8       20.8       18.2        3.4        3.4        3.4       0.00       37.9       0.00       0.00        3.6
3:02              258       14.5         90       18.2      471.2       16.8       21.3       16.5     1008.8       20.8       18.2        3.6        3.6        3.6       0.00       38.4       0.00       0.00        3.8
3:04              244        9.7         91       18.2      471.2       18.2       21.4       16.7     1008.8       20.8       18.1        3.6        3.6        3.6       0.00       38.8       0.00       0.00        3.8
3:06              246       11.3         91       18.1      471.2       17.3       21.3       16.6     1008.7       20.8       18.1        3.6        3.6        3.6       0.00       39.0       0.00       0.00        3.8
3:08              250       12.9         91       18.2      471.2       16.3       21.4       16.7     1008.7       20.8       18.1        3.6        3.6        3.6       0.00       39.2       0.00       0.00        3.8
3:10              246       11.3         91       18.1      471.2       18.1       21.3       16.6     1008.7       20.8       18.1        3.6        3.6        3.6       0.00       39.5       0.00       0.00        3.8
3:12              263        6.4         91       18.1      471.2       18.1       21.3       16.6     1008.6       20.8       18.1        3.6        3.6        3.6       0.00       39.7       0.00       0.00        3.8
3:14              250       14.5         91       18.1      471.2       17.3       21.3       16.6     1008.7       20.8       18.1        3.6        3.6        3.6       0.00       40.0       0.00       0.00        3.8
3:16              260        9.7         91       18.1      471.2       18.1       21.3       16.6     1008.7       20.8       18.1        3.6        0.4        3.6       0.00       40.3       0.00       0.00        3.8
3:18              254       17.7         91       18.1      471.2       14.5       21.3       16.6     1008.4       20.8       18.1        3.6        0.4        3.6       0.00       40.5       0.00       0.00        3.8
3:20              249       17.7         91       18.1      471.2       14.5       21.3       16.6     1008.4       20.8       18.1        3.6        0.4        3.6       0.00       40.9       0.00       0.00        3.8
3:22              253       16.1         91       18.0      471.2       14.4       21.2       16.5     1008.3       20.8       18.0        3.6        0.4        3.6       0.00       41.3       0.00       0.00        3.8
3:24              252       11.3         91       17.9      471.2       17.1       21.2       16.5     1008.5       20.8       17.9        3.6        0.4        3.6       0.00       41.7       0.00       0.00        3.8
3:26              258       16.1         91       18.0      471.2       18.0       21.2       16.5     1008.5       20.8       17.9        3.6        0.4        3.6       0.00       42.0       0.00       0.00        3.8
3:28              265       11.3         91       17.9      471.2       17.9       21.2       16.5     1008.4       20.8       17.9        3.6        0.4        3.6       0.00       42.3       0.00       0.00        3.8
3:30              256       12.9         92       17.9      471.2       17.9       21.2       16.6     1008.6       20.8       17.9        3.6        0.4        3.6       0.00       42.6       0.00       0.00        3.8
3:32              257        8.0         92       17.9      471.2       17.9       21.2       16.6     1008.6       20.8       17.9        3.6        0.2        3.6       0.00       42.8       0.00       0.00        3.8
3:34              276       17.7         92       18.0      471.2       16.1       21.3       16.7     1008.5       20.8       17.9        3.6        0.2        3.6       0.00       43.2       0.00       0.00        3.8
3:36              250       16.1         92       17.9      471.2       17.1       21.2       16.6     1008.7       20.8       17.9        3.6        0.2        3.6       0.00       43.5       0.00       0.00        3.8
3:38              257       17.7         91       17.9      471.2       14.8       21.1       16.4     1008.9       20.8       17.9        3.6        0.2        3.6       0.00       43.9       0.00       0.00        3.8
3:40              250       14.5         91       17.8      471.4       14.8       21.0       16.3     1009.1       20.8       17.8        3.8        0.4        3.8       0.00       44.3       0.00       0.00        4.0
3:42              260       22.5         91       17.8      471.4       13.9       21.0       16.3     1009.5       20.8       17.8        3.8        0.4        3.8       0.00       44.8       0.00       0.00        4.0
3:44              250       25.7         91       17.8      471.4       15.8       21.0       16.3     1009.7       20.8       17.8        3.8        0.4        3.8       0.00       45.3       0.00       0.00        4.0
3:46              294       19.3         92       17.8      471.4       14.7       21.1       16.5     1009.2       20.8       17.8        3.8        0.4        3.8       0.00       45.8       0.00       0.00        4.0
3:48              311        9.7         92       17.7      471.6       16.3       21.0       16.4     1008.7       20.8       17.7        4.0        0.6        4.0       1.40       46.1       0.00       0.00        4.2
3:50              281       14.5         92       17.7      471.8       14.6       21.0       16.4     1008.4       20.8       17.7        4.2        0.8        4.2       6.40       46.4       0.00       0.00        4.4
3:52              268       14.5         92       17.7      472.0       16.3       21.0       16.4     1008.9       20.8       17.7        4.4        1.0        4.4       4.80       46.7       0.00       0.00        4.6
3:54              249       14.5         92       17.6      472.0       16.8       20.9       16.3     1008.9       20.8       17.6        4.4        1.0        4.4       3.80       47.0       0.00       0.00        4.6
3:56              266        6.4         92       17.6      472.0       17.6       20.9       16.3     1008.9       20.8       17.6        4.4        1.0        4.4       2.40       47.2       0.00       0.00        4.6
3:58              266       11.3         92       17.6      472.0       17.6       20.9       16.2     1008.9       20.8       17.6        4.4        1.0        4.4       1.80       47.5       0.00       0.00        4.6
4:00              266        9.7         92       17.5      472.2       17.5       20.8       16.2     1008.6       20.8       17.5        4.6        1.2        4.6       1.60       47.7       0.00       0.00        4.8
4:02              266        4.8         92       17.4      472.2       17.4       20.7       16.1     1008.8       20.8       17.4        4.6        1.2        4.6       1.60       47.9       0.01       0.00        4.8
4:04              252       14.5         92       17.4      472.2       14.3       20.7       16.1     1009.2       20.8       17.4        4.6        1.2        4.6       2.20       48.3       0.01       0.00        4.8
4:06              251       12.9         92       17.4      472.4       14.9       20.7       16.1     1009.6       20.8       17.4        4.8        1.4        4.8       2.20       48.6       0.01       0.00        5.0
4:08              252        4.8         92       17.4      472.4       17.4       20.7       16.1     1009.1       20.8       17.4        4.8        1.4        4.8       2.20       48.8       0.01       0.00        5.0
4:09              267       11.3         92       17.4      472.6       16.0       20.7       16.1     1009.1       20.8       17.4        5.0        1.6        5.0       2.80       49.1       0.01       0.00        5.2
4:12              267        9.7         92       17.3      472.8       15.9       20.6       16.0     1008.8       20.8       17.3        5.2        1.8        5.2       4.00       49.4       0.01       0.00        5.4
4:14              269        9.7         92       17.3      472.8       17.3       20.6       16.0     1008.6       20.8       17.3        5.2        1.8        5.2       4.00       49.6       0.01       0.00        5.4
4:16              268       12.9         92       17.3      473.0       14.7       20.6       16.0     1008.6       20.8       17.3        5.4        1.8        5.4       3.80       49.8       0.02       0.00        5.6
4:18              248       14.5         92       17.3      473.2       17.3       20.6       16.0     1008.8       20.8       17.3        5.6        2.0        5.6       3.60       50.0       0.02       0.00        5.8
4:20              250       11.3         92       17.2      473.4       15.2       20.5       15.9     1009.0       20.8       17.2        5.8        2.2        5.8       5.80       50.3       0.02       0.00        6.0
4:22              236        9.7         92       17.2      473.4       17.2       20.5       15.9     1009.1       20.8       17.2        5.8        2.2        5.8       5.60       50.5       0.02       0.00        6.0
4:24              229       19.3         92       17.2      473.4       15.1       20.5       15.9     1009.3       20.8       17.2        5.8        2.2        5.8       2.80       50.8       0.02       0.00        6.0
4:26              221       16.1         92       17.1      473.4       15.7       20.4       15.8     1009.5       20.8       17.1        5.8        2.2        5.8       2.00       51.1       0.02       0.00        6.0
4:28              211       17.7         92       17.1      473.6       12.9       20.4       15.7     1009.6       20.8       17.1        6.0        2.4        6.0       1.60       51.5       0.02       0.00        6.2
4:30              220        8.0         92       17.0      473.6       17.0       20.3       15.7     1009.4       20.8       17.0        6.0        2.4        6.0       1.60       51.8       0.02       0.00        6.2
4:32              228        6.4         92       16.9      473.6       16.9       20.2       15.6     1009.5       20.8       16.9        6.0        2.4        6.0       1.60       51.9       0.03       0.00        6.2
4:34              242        9.7         92       16.9      473.6       16.9       20.2       15.6     1009.6       20.8       16.9        6.0        2.4        6.0       1.60       52.1       0.03       0.00        6.2
4:36              244       11.3         93       16.9      473.8       16.9       20.3       15.8     1009.9       20.8       16.9        6.2        2.6        6.2       1.40       52.3       0.03       0.00        6.4
4:38              228        6.4         93       16.9      473.8       16.9       20.3       15.8     1009.7       20.8       16.9        6.2        2.6        6.2       1.40       52.4       0.03       0.00        6.4
4:40              229        8.0         93       16.9      474.0       16.9       20.3       15.8     1009.4       20.8       16.9        6.4        2.8        6.4       3.20       52.6       0.03       0.00        6.6
4:42              264        9.7         93       16.9      474.0       16.9       20.3       15.8     1009.2       20.8       16.9        6.4        2.8        6.4       3.20       52.8       0.03       0.00        6.6
4:44              250        8.0         92       16.9      474.0       16.9       20.2       15.6     1009.2       20.8       16.9        6.4        2.8        6.4       2.40       53.1       0.03       0.00        6.6
4:46              252       11.3         92       16.8      474.2       14.7       20.1       15.5     1009.2       20.8       16.8        6.6        2.8        6.6       2.20       53.3       0.04       0.00        6.8
4:48              256        8.0         93       16.8      474.2       16.8       20.2       15.6     1009.2       20.8       16.8        6.6        2.8        6.6       2.20       53.5       0.04       0.00        6.8
4:50              254       14.5         93       16.8      474.2       15.9       20.2       15.6     1009.2       20.8       16.8        6.6        2.8        6.6       2.20       53.8       0.04       0.00        6.8
4:52              256       22.5         92       16.7      474.2       12.5       20.0       15.4     1009.4       20.8       16.7        6.6        2.8        6.6       1.60       54.2       0.04       0.00        6.8
4:54              250       17.7         93       16.6      474.2       12.4       20.0       15.5     1009.6       20.8       16.6        6.6        2.8        6.6       1.20       54.6       0.04       0.00        6.8
4:56              259       12.9         93       16.6      474.2       14.5       20.0       15.5     1009.7       20.8       16.6        6.6        2.8        6.6       1.00       55.0       0.04       0.00        6.8
4:58              248       16.1         93       16.6      474.2       16.6       19.9       15.4     1009.7       20.8       16.6        6.6        2.8        6.6       0.80       55.4       0.04       0.00        6.8
5:00              259       17.7         93       16.6      474.2       16.6       19.9       15.4     1009.7       20.8       16.6        6.6        2.8        6.6       0.80       55.8       0.04       0.00        6.8
5:02              257       11.3         93       16.6      474.2       14.4       19.9       15.4     1009.8       20.8       16.6        6.6        2.0        6.6       0.00       56.1       0.05       0.00        6.8
5:04              256       12.9         93       16.6      474.2       15.7       19.9       15.4     1009.8       20.8       16.6        6.6        2.0        6.6       0.00       56.4       0.05       0.00        6.8
5:06              253       12.9         93       16.5      474.2       14.4       19.9       15.4     1009.6       20.8       16.5        6.6        2.0        6.6       0.00       56.7       0.05       0.00        6.8
5:08              277       16.1         93       16.5      474.2       12.6       19.9       15.4     1009.6       20.8       16.5        6.6        2.0        6.6       0.00       57.0       0.05       0.00        6.8
5:10              269       14.5         93       16.5      474.2       16.5       19.9       15.4     1009.7       20.8       16.5        6.6        2.0        6.6       0.00       57.3       0.05       0.00        6.8
5:12              266       12.9         93       16.5      474.2       14.4       19.9       15.4     1009.7       20.8       16.5        6.6        2.0        6.6       0.00       57.6       0.05       0.00        6.8
5:14              272       17.7         93       16.5      474.2       14.4       19.9       15.4     1009.7       20.8       16.5        6.6        2.0        6.6       0.00       57.9       0.05       0.00        6.8
5:16              270       17.7         93       16.4      474.2       14.9       19.8       15.3     1009.7       20.8       16.4        6.6        1.2        6.6       0.00       58.2       0.07       0.00        6.8
5:18              267       12.9         93       16.4      474.2       14.3       19.8       15.3     1009.7       20.8       16.4        6.6        1.2        6.6       0.00       58.5       0.07       0.00        6.8
5:20              268       16.1         93       16.4      474.2       12.4       19.8       15.3     1009.7       20.8       16.4        6.6        1.2        6.6       0.00       58.8       0.07       0.00        6.8
5:22              284       17.7         93       16.4      474.2       14.2       19.8       15.3     1009.7       20.8       16.4        6.6        1.2        6.6       0.00       59.3       0.07       0.00        6.8
5:24              262       19.3         93       16.3      474.2       12.4       19.7       15.2     1009.6       20.8       16.3        6.6        1.2        6.6       0.00       59.6       0.07       0.00        6.8
5:26              265       14.5         93       16.3      474.2       14.8       19.7       15.2     1009.6       20.8       16.3        6.6        1.2        6.6       0.00       60.0       0.07       0.00        6.8
5:28              257       16.1         93       16.3      474.2       13.6       19.7       15.2     1009.7       20.8       16.3        6.6        1.2        6.6       0.00       60.4       0.07       0.00        6.8
5:30              277       14.5         93       16.3      474.2       14.7       19.7       15.1     1009.7       20.8       16.3        6.6        1.2        6.6       0.00       60.7       0.07       0.00        6.8
5:32              279       11.3         93       16.3      474.2       16.3       19.7       15.1     1009.7       20.8       16.3        6.6        0.6        6.6       0.00       60.9       0.09       0.00        6.8
5:34              267       11.3         93       16.3      474.2       16.3       19.7       15.1     1009.7       20.8       16.3        6.6        0.6        6.6       0.00       61.2       0.09       0.00        6.8
5:36              254       12.9         92       16.2      474.2       14.1       19.5       14.9     1009.7       20.8       16.2        6.6        0.6        6.6       0.00       61.5       0.09       0.00        6.8
5:38              273       19.3         92       16.2      474.2       11.9       19.5       14.9     1009.7       20.8       16.2        6.6        0.6        6.6       0.00       61.9       0.09       0.00        6.8
5:40              264       11.3         92       16.1      474.2       13.9       19.4       14.8     1009.7       20.8       16.1        6.6        0.6        6.6       0.00       62.2       0.09       0.00        6.8
5:42              269       12.9         92       16.1      474.2       16.1       19.4       14.8     1009.8       20.8       16.1        6.6        0.6        6.6       0.00       62.5       0.09       0.00        6.8
5:44              278        6.4         92       16.1      474.2       16.1       19.4       14.8     1009.7       20.8       16.1        6.6        0.6        6.6       0.00       62.7       0.09       0.00        6.8
5:46              274       14.5         92       16.1      474.2       13.9       19.4       14.8     1009.7       20.8       16.1        6.6        0.0        6.6       0.00       63.0       0.11       0.00        6.8
5:48              278       16.1         92       16.0      474.2       16.0       19.3       14.7     1009.7       20.8       16.0        6.6        0.0        6.6       0.00       63.4       0.11       0.00        6.8
5:50              272       16.1         92       15.9      474.2       11.9       19.2       14.6     1009.7       20.8       15.9        6.6        0.0        6.6       0.00       63.8       0.11       0.00        6.8
5:52              268       14.5         92       15.9      474.2       12.4       19.2       14.6     1009.8       20.8       15.9        6.6        0.0        6.6       0.00       64.2       0.11       0.00        6.8
5:54              269        6.4         92       15.9      474.2       15.9       19.2       14.6     1009.8       20.8       15.9        6.6        0.0        6.6       0.00       64.5       0.11       0.00        6.8
5:56              270        6.4         91       15.9      474.2       15.9       19.1       14.4     1009.7       20.8       15.9        6.6        0.0        6.6       0.00       64.8       0.11       0.00        6.8
5:58              279       14.5         91       15.8      474.2       15.8       19.0       14.4     1009.7       20.8       15.8        6.6        0.0        6.6       0.00       65.1       0.11       0.00        6.8
6:00              284       11.3         91       15.8      474.2       15.8       19.0       14.4     1009.7       20.8       15.8        6.6        0.0        6.6       0.00       65.3       0.11       0.00        6.8
6:02              282        9.7         91       15.8      474.2       15.8       19.0       14.3     1009.7       20.8       15.8        6.6        0.0        6.6       0.00       65.6       0.13       0.00        6.8
6:04              282        9.7         91       15.8      474.2       15.8       19.0       14.3     1009.8       20.8       15.8        6.6        0.0        6.6       0.00       65.8       0.13       0.00        6.8
6:06              304       11.3         90       15.7      474.2       14.8       18.9       14.1     1009.8       20.8       15.7        6.6        0.0        6.6       0.00       66.1       0.13       0.00        6.8
6:08              301        8.0         90       15.7      474.2       14.7       18.8       14.0     1009.7       20.8       15.7        6.6        0.0        6.6       0.00       66.3       0.13       0.00        6.8
6:10              276       16.1         90       15.6      474.2       15.6       18.7       14.0     1009.7       20.8       15.6        6.6        0.0        6.6       0.00       66.6       0.13       0.00        6.8
6:12              274        9.7         90       15.6      474.2       14.0       18.7       13.9     1009.7       20.8       15.6        6.6        0.0        6.6       0.00       66.9       0.13       0.00        6.8
6:14              283        6.4         89       15.6      474.2       15.6       18.6       13.8     1009.8       20.8       15.6        6.6        0.0        6.6       0.00       67.2       0.13       0.00        6.8
6:16              294       11.3         89       15.6      474.2       14.6       18.6       13.8     1009.9       20.8       15.6        6.6        0.0        6.6       0.00       67.3       0.15       0.00        6.8
6:18              275       16.1         89       15.5      474.2       15.5       18.6       13.7     1009.9       20.8       15.5        6.6        0.0        6.6       0.00       67.6       0.15       0.00        6.8
6:20              292        6.4         89       15.5      474.2       15.5       18.6       13.7     1010.0       20.8       15.5        6.6        0.0        6.6       0.00       67.8       0.15       0.00        6.8
6:22              296        4.8         88       15.4      474.2       15.4       18.4       13.5     1010.0       20.8       15.4        6.6        0.0        6.6       0.00       68.2       0.15       0.00        6.8
6:24              280       11.3         88       15.5      474.2       15.5       18.5       13.5     1010.1       20.8       15.4        6.6        0.0        6.6       0.00       68.4       0.15       0.00        6.8
6:26              290       11.3         88       15.4      474.2       15.4       18.4       13.5     1010.1       20.8       15.4        6.6        0.0        6.6       0.00       68.6       0.15       0.00        6.8
6:28              292        3.2         88       15.4      474.2       15.4       18.4       13.5     1010.1       20.8       15.4        6.6        0.0        6.6       0.00       68.7       0.15       0.00        6.8
6:30              294        4.8         88       15.4      474.2       15.4       18.4       13.5     1010.1       20.8       15.4        6.6        0.0        6.6       0.00       68.8       0.15       0.00        6.8
6:32              292       11.3         87       15.4      474.2       13.1       18.3       13.2     1010.1       20.8       15.4        6.6        0.0        6.6       0.00       69.1       0.18       0.00        6.8
6:34              295       14.5         87       15.3      474.2       15.3       18.2       13.2     1010.1       20.8       15.3        6.6        0.0        6.6       0.00       69.4       0.18       0.00        6.8
6:36              277       12.9         87       15.3      474.2       13.0       18.2       13.1     1010.1       20.8       15.3        6.6        0.0        6.6       0.00       69.7       0.18       0.00        6.8
6:38              297        8.0         87       15.3      474.2       14.3       18.2       13.1     1010.1       20.8       15.3        6.6        0.0        6.6       0.00       69.9       0.18       0.00        6.8
6:40              294       11.3         87       15.3      474.2       15.3       18.2       13.1     1010.1       20.8       15.3        6.6        0.0        6.6       0.00       70.2       0.18       0.00        6.8
6:42              282       16.1         87       15.2      474.2       13.6       18.1       13.1     1010.1       20.8       15.2        6.6        0.0        6.6       0.00       70.5       0.18       0.00        6.8
6:44              263       24.1         87       15.2      474.2       12.3       18.1       13.1     1010.1       20.8       15.2        6.6        0.0        6.6       0.00       71.0       0.18       0.00        6.8
6:46              300       14.5         86       15.3      474.2       11.7       18.1       13.0     1010.1       20.8       15.2        6.6        0.0        6.6       0.00       71.2       0.21       0.00        6.8
6:48              267       12.9         86       15.2      474.2       15.2       18.0       12.9     1010.1       20.8       15.2        6.6        0.0        6.6       0.00       71.5       0.21       0.00        6.8
6:50              282        9.7         86       15.3      474.2       15.3       18.1       13.0     1010.1       20.8       15.2        6.6        0.0        6.6       0.00       71.7       0.21       0.00        6.8
6:52              265       16.1         86       15.3      474.2       13.7       18.1       13.0     1010.1       20.8       15.2        6.6        0.0        6.6       0.00       71.9       0.21       0.00        6.8
6:54              277        4.8         86       15.3      474.2       15.3       18.1       13.0     1010.2       20.8       15.2        6.6        0.0        6.6       0.00       72.1       0.21       0.00        6.8
6:56              279        9.7         86       15.3      474.2       13.7       18.1       13.0     1010.1       20.8       15.2        6.6        0.0        6.6       0.00       72.3       0.21       0.00        6.8
6:58              263       12.9         87       15.3      474.2       12.4       18.2       13.2     1010.2       20.8       15.2        6.6        0.0        6.6       0.00       72.7       0.21       0.00        6.8
7:00              270        6.4         87       15.3      474.2       15.3       18.2       13.2     1010.2       20.8       15.2        6.6        0.0        6.6       0.00       73.0       0.21       0.00        6.8
7:02              275       16.1         87       15.3      474.2       13.1       18.2       13.2     1010.2       20.8       15.2        6.6        0.0        6.6       0.00       73.4       0.24       0.00        6.8
7:04              271       12.9         87       15.3      474.2       12.4       18.2       13.2     1010.3       20.8       15.2        6.6        0.0        6.6       0.00       73.8       0.24       0.00        6.8
7:06              285        4.8         87       15.3      474.2       15.3       18.2       13.2     1010.4       20.8       15.2        6.6        0.0        6.6       0.00       74.0       0.24       0.00        6.8
7:08              279       19.3         87       15.4      474.2       15.4       18.3       13.2     1010.6       20.8       15.2        6.6        0.0        6.6       0.00       74.4       0.24       0.00        6.8
7:10              271       11.3         87       15.3      474.2       13.7       18.2       13.2     1010.6       20.8       15.2        6.6        0.0        6.6       0.00       74.7       0.24       0.00        6.8
7:12              277       12.9         87       15.4      474.2       13.1       18.3       13.2     1010.6       20.8       15.2        6.6        0.0        6.6       0.00       75.0       0.24       0.00        6.8
7:14              279       16.1         87       15.3      474.2       11.1       18.2       13.2     1010.6       20.8       15.2        6.6        0.0        6.6       0.00       75.3       0.24       0.00        6.8
7:16              273       12.9         87       15.4      474.2       13.1       18.3       13.2     1010.6       20.8       15.2        6.6        0.0        6.6       0.00       75.7       0.27       0.00        6.8
7:18              269       17.7         87       15.4      474.2       15.4       18.3       13.2     1010.5       20.8       15.2        6.6        0.0        6.6       0.00       76.0       0.27       0.00        6.8
7:20              266       11.3         87       15.4      474.2       15.4       18.3       13.2     1010.6       20.8       15.2        6.6        0.0        6.6       0.00       76.3       0.27       0.00        6.8
7:22              278       11.3         87       15.4      474.2       13.1       18.3       13.2     1010.7       20.8       15.2        6.6        0.0        6.6       0.00       76.5       0.27       0.00        6.8
7:24              281        6.4         87       15.4      474.2       15.4       18.3       13.2     1010.8       20.8       15.2        6.6        0.0        6.6       0.00       76.8       0.27       0.00        6.8
7:26              305       12.9         87       15.4      474.2       14.4       18.3       13.2     1010.8       20.8       15.2        6.6        0.0        6.6       0.00       77.1       0.27       0.00        6.8
7:28              290       11.3         87       15.4      474.2       15.4       18.3       13.2     1010.9       20.8       15.2        6.6        0.0        6.6       0.00       77.3       0.27       0.00        6.8
7:30              301        8.0         87       15.4      474.2       14.5       18.3       13.3     1010.9       20.8       15.2        6.6        0.0        6.6       0.00       77.5       0.27       0.00        6.8
7:32              294       12.9         87       15.4      474.2       12.5       18.3       13.3     1010.9       20.8       15.2        6.6        0.0        6.6       0.00       77.7       0.29       0.00        6.8
7:34              277       12.9         87       15.5      474.2       13.2       18.4       13.3     1011.1       20.8       15.2        6.6        0.0        6.6       0.00       78.0       0.29       0.00        6.8
7:36              281        4.8         87       15.5      474.2       15.5       18.4       13.3     1011.2       20.8       15.2        6.6        0.0        6.6       0.00       78.2       0.29       0.00        6.8
7:38              276        9.7         86       15.5      474.2       13.9       18.3       13.2     1011.2       20.8       15.2        6.6        0.0        6.6       0.00       78.4       0.29       0.00        6.8
7:40              283        3.2         86       15.6      474.2       15.6       18.4       13.2     1011.4       20.8       15.2        6.6        0.0        6.6       0.00       78.6       0.29       0.00        6.8
7:42              279        4.8         86       15.6      474.2       15.6       18.4       13.3     1011.4       20.8       15.2        6.6        0.0        6.6       0.00       78.9       0.29       0.00        6.8
7:44              296       17.7         86       15.7      474.2       11.5       18.5       13.3     1011.3       20.8       15.2        6.6        0.0        6.6       0.00       79.2       0.29       0.00        6.8
7:46              305       22.5         86       15.7      474.2       10.2       18.5       13.4     1011.3       20.8       15.2        6.6        0.0        6.6       0.00       79.5       0.32       0.00        6.8
7:48              292        8.0         86       15.7      474.2       14.8       18.5       13.4     1011.3       20.8       15.2        6.6        0.0        6.6       0.00       80.0       0.32       0.00        6.8
7:50              290       17.7         85       15.8      474.2       13.0       18.6       13.3     1011.4       20.8       15.2        6.6        0.0        6.6       0.00       80.4       0.32       0.00        6.8
7:52              286       22.5         85       15.9      474.2       11.8       18.6       13.4     1011.5       20.8       15.2        6.6        0.0        6.6       0.00       80.9       0.32       0.00        6.8
7:54              320       17.7         85       15.9      474.2       12.4       18.6       13.4     1011.6       20.8       15.2        6.6        0.0        6.6       0.00       81.4       0.32       0.00        6.8
7:56              307       14.5         85       15.9      474.2       12.5       18.7       13.4     1011.6       20.8       15.2        6.6        0.0        6.6       0.00       81.9       0.32       0.00        6.8
7:58              290       17.7         85       15.9      474.2       12.5       18.7       13.4     1011.7       20.8       15.2        6.6        0.0        6.6       0.00       82.3       0.32       0.00        6.8
8:00              302        8.0         85       16.0      474.2       16.0       18.7       13.5     1011.9       20.8       15.2        6.6        0.0        6.6       0.00       82.6       0.32       0.00        6.8
8:02              304        6.4         85       16.1      474.2       16.1       18.8       13.5     1011.9       20.8       15.2        6.6        0.0        6.6       0.00       82.7       0.34       0.00        6.8
8:04              292       17.7         85       16.1      474.2       13.9       18.8       13.5     1012.0       20.8       15.2        6.6        0.0        6.6       0.00       83.0       0.34       0.00        6.8
8:06              275       12.9         84       16.1      474.2       14.5       18.7       13.4     1012.0       20.8       15.2        6.6        0.0        6.6       0.00       83.4       0.34       0.00        6.8
8:08              290       14.5         83       16.1      474.2       13.2       18.6       13.2     1012.0       20.8       15.2        6.6        0.0        6.6       0.00       83.7       0.34       0.00        6.8
8:10              297       14.5         83       16.1      474.2       13.2       18.6       13.2     1012.0       20.8       15.2        6.6        0.0        6.6       0.00       84.0       0.34       0.00        6.8
8:12              281        4.8         83       16.1      474.2       16.1       18.6       13.2     1012.0       20.8       15.2        6.6        0.0        6.6       0.00       84.2       0.34       0.00        6.8
8:14              303       12.9         82       16.1      474.2       16.1       18.6       13.0     1012.0       20.8       15.2        6.6        0.0        6.6       0.00       84.5       0.34       0.00        6.8
8:16              278       17.7         82       16.1      474.2       13.3       18.6       13.0     1012.0       20.8       15.2        6.6        0.0        6.6       0.00       84.7       0.36       0.00        6.8
8:18              258        9.7         82       16.1      474.2       14.6       18.6       13.0     1012.1       20.8       15.2        6.6        0.0        6.6       0.00       85.0       0.36       0.00        6.8
8:20              292       19.3         82       16.2      474.2       15.2       18.7       13.1     1012.1       20.8       15.2        6.6        0.0        6.6       0.00       85.4       0.36       0.00        6.8
8:22              294       12.9         82       16.2      474.2       15.3       18.7       13.1     1012.1       20.8       15.2        6.6        0.0        6.6       0.00       85.7       0.36       0.00        6.8
8:24              292        6.4         82       16.2      474.2       16.2       18.7       13.1     1012.0       20.8       15.2        6.6        0.0        6.6       0.00       85.9       0.36       0.00        6.8
8:26              278       14.5         80       16.2      474.2       16.2       18.5       12.7     1012.1       20.8       15.2        6.6        0.0        6.6       0.00       86.3       0.36       0.00        6.8
8:28              321       12.9         80       16.2      474.2       16.2       18.5       12.7     1012.2       20.8       15.2        6.6        0.0        6.6       0.00       86.5       0.36       0.00        6.8
8:30              308       16.1         79       16.2      474.2       12.2       18.4       12.5     1012.2       20.8       15.2        6.6        0.0        6.6       0.00       87.0       0.36       0.00        6.8
8:32              300       12.9         77       16.2      474.2       14.0       18.3       12.1     1012.2       20.8       15.2        6.6        0.0        6.6       0.00       87.4       0.38       0.00        6.8
8:34              309       11.3         77       16.3      474.2       16.3       18.4       12.2     1012.3       20.8       15.2        6.6        0.0        6.6       0.00       87.7       0.38       0.00        6.8
8:36              283       11.3         75       16.3      474.2       14.1       18.3       11.8     1012.4       20.8       15.2        6.6        0.0        6.6       0.00       88.0       0.38       0.00        6.8
8:38              300       16.1         75       16.3      474.2       14.2       18.3       11.9     1012.3       20.8       15.2        6.6        0.0        6.6       0.00       88.4       0.38       0.00        6.8
8:39              293       25.7         74       16.3      474.2       12.4       18.2       11.7     1012.5       20.8       15.2        6.6        0.0        6.6       0.00       88.8       0.38       0.00        6.8
8:42              325       25.7         72       16.3      474.2       10.4       18.1       11.3     1012.6       20.8       15.2        6.6        0.0        6.6       0.00       89.4       0.38       0.00        6.8
8:44              322        9.7         70       16.3      474.2       16.3       18.0       10.9     1012.6       20.8       15.2        6.6        0.0        6.6       0.00       89.8       0.38       0.00        6.8
8:46              336       14.5         70       16.3      474.2       15.4       18.0       10.9     1012.6       20.8       15.2        6.6        0.0        6.6       0.00       90.0       0.39       0.00        6.8
8:48              327       17.7         69       16.3      474.2       12.9       17.9       10.6     1012.7       20.8       15.2        6.6        0.0        6.6       0.00       90.4       0.39       0.00        6.8
8:50              274       17.7         69       16.3      474.2       12.0       17.9       10.6     1012.7       20.8       15.2        6.6        0.0        6.6       0.00       90.7       0.39       0.00        6.8
8:52              304       19.3         68       16.3      474.2       14.2       17.8       10.4     1012.7       20.8       15.2        6.6        0.0        6.6       0.00       91.1       0.39       0.00        6.8
8:54              304       20.9         67       16.3      474.2       11.4       17.8       10.2     1012.7       20.8       15.2        6.6        0.0        6.6       0.00       91.6       0.39       0.00        6.8
8:56              335       22.5         67       16.3      474.2       12.4       17.8       10.2     1012.8       20.8       15.2        6.6        0.0        6.6       0.00       92.2       0.39       0.00        6.8
8:58              283       19.3         66       16.3      474.2       11.7       17.7       10.0     1012.8       20.8       15.2        6.6        0.0        6.6       0.00       92.6       0.39       0.00        6.8
9:00              319       17.7         66       16.3      474.2       14.8       17.7       10.0     1012.9       20.8       15.2        6.6        0.0        6.6       0.00       93.3       0.39       0.00        6.8
9:02              327        9.7         67       16.3      474.2       16.3       17.8       10.2     1012.8       20.8       15.2        6.6        0.0        6.6       0.00       93.6       0.41       0.00        6.8
9:04              317        9.7         68       16.4      474.2       16.4       18.0       10.5     1012.8       20.8       15.2        6.6        0.0        6.6       0.00       93.8       0.41       0.00        6.8
9:06              320       14.5         67       16.5      474.2       13.1       17.9       10.4     1012.9       20.8       15.2        6.6        0.0        6.6       0.00       94.1       0.41       0.00        6.8
9:08              311        8.0         66       16.5      474.2       16.5       17.9       10.1     1012.8       20.8       15.2        6.6        0.0        6.6       0.00       94.5       0.41       0.00        6.8
9:10              302       16.1         67       16.5      474.2       16.5       17.9       10.4     1012.9       20.8       15.2        6.6        0.0        6.6       0.00       94.9       0.41       0.00        6.8
9:12              329       19.3         66       16.6      474.2       12.6       17.9       10.2     1012.8       20.8       15.2        6.6        0.0        6.6       0.00       95.4       0.41       0.00        6.8
9:14              307       22.5         65       16.6      474.2       11.4       17.9       10.0     1012.9       20.8       15.2        6.6        0.0        6.6       0.00       95.9       0.41       0.00        6.8
9:16              292       19.3         65       16.6      474.2       13.3       17.9       10.0     1012.9       20.8       15.2        6.6        0.0        6.6       0.00       96.3       0.42       0.00        6.8
9:18              307       16.1         65       16.6      474.2       15.7       17.9       10.0     1013.0       20.8       15.2        6.6        0.0        6.6       0.00       96.8       0.42       0.00        6.8
9:20              312       20.9         65       16.6      474.2       16.6       17.9       10.0     1012.9       20.8       15.2        6.6        0.0        6.6       0.00       97.2       0.42       0.00        6.8
9:22              300       12.9         65       16.6      474.2       14.5       17.9       10.0     1013.0       20.8       15.2        6.6        0.0        6.6       0.00       97.5       0.42       0.00        6.8
9:24              331        8.0         66       16.7      474.2       16.7       18.0       10.3     1012.8       20.8       15.2        6.6        0.0        6.6       0.00       97.9       0.42       0.00        6.8
9:26              329        8.0         67       16.7      474.2       15.8       18.2       10.6     1012.9       20.8       15.2        6.6        0.0        6.6       0.00       98.1       0.42       0.00        6.8
9:28              312        6.4         66       16.8      474.2       16.8       18.2       10.5     1012.9       20.8       15.2        6.6        0.0        6.6       0.00       98.3       0.42       0.00        6.8
9:29              316        6.4         66       16.9      474.2       16.9       18.3       10.5     1012.9       20.8       15.2        6.6        0.0        6.6       0.00       98.5       0.42       0.00        6.8
9:32              313       12.9         66       16.9      474.2       16.9       18.3       10.6     1012.9       20.8       15.2        6.6        0.0        6.6       0.00       98.6       0.44       0.00        6.8
9:34              328       14.5         66       16.9      474.2       15.5       18.3       10.6     1012.8       20.8       15.2        6.6        0.0        6.6       0.00       98.9       0.44       0.00        6.8
9:36              312        6.4         66       17.0      474.2       17.0       18.4       10.6     1012.9       20.8       15.2        6.6        0.0        6.6       0.00       99.1       0.44       0.00        6.8
9:38              317       16.1         66       17.0      474.2       13.2       18.4       10.6     1012.9       20.8       15.2        6.6        0.0        6.6       0.00       99.3       0.44       0.00        6.8
9:40              316        9.7         66       16.9      474.2       16.9       18.3       10.6     1012.9       20.8       15.2        6.6        0.0        6.6       0.00       99.5       0.44       0.00        6.8
9:42              300        6.4         66       16.9      474.2       16.9       18.3       10.5     1013.0       20.8       15.2        6.6        0.0        6.6       0.00       99.8       0.44       0.00        6.8
9:44              317        6.4         66       16.9      474.2       16.9       18.3       10.5     1013.1       20.8       15.2        6.6        0.0        6.6       0.00      100.0       0.44       0.00        6.8
9:46              312       16.1         66       16.8      474.2       15.9       18.2       10.5     1013.1       20.8       15.2        6.6        0.0        6.6       0.00      100.3       0.45       0.00        6.8
9:48              303        6.4         66       16.8      474.2       16.8       18.2       10.5     1013.0       20.8       15.2        6.6        0.0        6.6       0.00      100.6       0.45       0.00        6.8
9:50              309       11.3         67       16.8      474.2       14.7       18.3       10.7     1013.0       20.8       15.2        6.6        0.0        6.6       0.00      100.7       0.45       0.00        6.8
9:52              323        6.4         67       16.9      474.2       16.9       18.3       10.7     1013.0       20.8       15.2        6.6        0.0        6.6       0.00      100.9       0.45       0.00        6.8
9:54              308       11.3         67       17.0      474.2       14.9       18.4       10.8     1013.0       20.8       15.2        6.6        0.0        6.6       0.00      101.0       0.45       0.00        6.8
9:56              309       16.1         65       17.1      474.2       13.3       18.4       10.4     1012.9       20.8       15.2        6.6        0.0        6.6       0.00      101.4       0.45       0.00        6.8
9:58              309        8.0         65       17.0      474.2       17.0       18.3       10.4     1012.9       20.8       15.2        6.6        0.0        6.6       0.00      101.6       0.45       0.00        6.8
10:00             336       17.7         65       16.9      474.2       13.1       18.3       10.3     1012.9       20.8       15.2        6.6        0.0        6.6       0.00      101.9       0.45       0.00        6.8
10:02             315        6.4         64       16.9      474.2       16.9       18.2       10.1     1013.0       20.8       15.2        6.6        0.0        6.6       0.00      102.1       0.46       0.00        6.8
10:04             345       14.5         65       16.9      474.2       15.5       18.3       10.3     1012.9       20.8       15.2        6.6        0.0        6.6       0.00      102.2       0.46       0.00        6.8
10:06             325       16.1         65       17.0      474.2       17.0       18.3       10.4     1013.0       20.8       15.2        6.6        0.0        6.6       0.00      102.6       0.46       0.00        6.8
10:08             327       16.1         64       17.0      474.2       13.8       18.3       10.1     1013.0       20.8       15.2        6.6        0.0        6.6       0.00      102.9       0.46       0.00        6.8
10:10             287       17.7         65       17.1      474.2       13.8       18.4       10.4     1013.1       20.8       15.2        6.6        0.0        6.6       0.00      103.2       0.46       0.00        6.8
10:12             324       17.7         64       17.1      474.2       16.2       18.3       10.2     1013.1       20.8       15.2        6.6        0.0        6.6       0.00      103.6       0.46       0.00        6.8
10:14             295       11.3         64       17.1      474.2       16.2       18.4       10.3     1013.1       20.8       15.2        6.6        0.0        6.6       0.00      103.8       0.46       0.00        6.8
10:16             330       17.7         65       17.2      474.2       13.1       18.5       10.5     1013.1       20.8       15.2        6.6        0.0        6.6       0.00      104.1       0.47       0.00        6.8
10:18             295       19.3         64       17.2      474.2       12.8       18.5       10.4     1013.1       20.8       15.2        6.6        0.0        6.6       0.00      104.5       0.47       0.00        6.8
10:20             288       11.3         63       17.2      474.2       16.4       18.4       10.1     1013.1       20.8       15.2        6.6        0.0        6.6       0.00      104.8       0.47       0.00        6.8
10:22             314       17.7         64       17.3      474.2       14.7       18.6       10.5     1013.1       20.8       15.2        6.6        0.0        6.6       0.00      105.2       0.47       0.00        6.8
10:24             294       12.9         63       17.3      474.2       14.7       18.5       10.2     1013.1       20.8       15.2        6.6        0.0        6.6       0.00      105.5       0.47       0.00        6.8
10:26             288       11.3         63       17.3      474.2       16.5       18.5       10.2     1013.0       20.8       15.2        6.6        0.0        6.6       0.00      105.8       0.47       0.00        6.8
10:28             293       20.9         63       17.4      474.2       14.8       18.6       10.3     1013.1       20.8       15.2        6.6        0.0        6.6       0.00      106.2       0.47       0.00        6.8
10:30             283       22.5         61       17.3      474.2       15.9       18.4        9.7     1013.1       20.8       15.2        6.6        0.0        6.6       0.00      106.7       0.47       0.00        6.8
10:32             311       14.5         61       17.3      474.2       16.4       18.3        9.7     1013.1       20.8       15.2        6.6        0.0        6.6       0.00      107.2       0.48       0.00        6.8
10:34             319       12.9         62       17.3      474.2       15.9       18.5       10.0     1013.1       20.8       15.2        6.6        0.0        6.6       0.00      107.6       0.48       0.00        6.8
10:36             313       19.3         61       17.3      474.2       15.9       18.4        9.7     1013.1       20.8       15.2        6.6        0.0        6.6       0.00      108.0       0.48       0.00        6.8
10:38             295       19.3         62       17.4      474.2       13.0       18.5       10.0     1013.0       20.8       15.2        6.6        0.0        6.6       0.00      108.4       0.48       0.00        6.8
10:40             300       16.1         62       17.4      474.2       15.4       18.6       10.1     1013.0       20.8       15.2        6.6        0.0        6.6       0.00      108.8       0.48       0.00        6.8
10:42             312       17.7         62       17.6      474.2       15.1       18.7       10.3     1013.0       20.8       15.2        6.6        0.0        6.6       0.00      109.3       0.48       0.00        6.8
10:44             333       22.5         61       17.7      474.2       13.7       18.7       10.1     1013.0       20.8       15.2        6.6        0.0        6.6       0.00      109.8       0.48       0.00        6.8
10:46             294       11.3         61       17.7      474.2       15.8       18.8       10.1     1013.0       20.8       15.2        6.6        0.0        6.6       0.00      110.1       0.48       0.00        6.8
10:48             331       12.9         62       17.8      474.2       17.0       19.0       10.5     1013.1       20.8       15.2        6.6        0.0        6.6       0.00      110.5       0.48       0.00        6.8
10:50             257       17.7         62       17.9      474.2       14.4       19.1       10.6     1013.1       20.8       15.2        6.6        0.0        6.6       0.00      110.7       0.48       0.00        6.8
10:52             295       16.1         60       18.0      474.2       14.4       19.0       10.1     1013.0       20.8       15.2        6.6        0.0        6.6       0.00      111.1       0.48       0.00        6.8
10:54             292       22.5         59       17.9      474.2       13.4       18.8        9.8     1013.0       20.8       15.2        6.6        0.0        6.6       0.00      111.6       0.48       0.00        6.8
10:56             282       17.7         59       17.8      474.2       13.9       18.8        9.7     1013.0       20.8       15.2        6.6        0.0        6.6       0.00      112.1       0.48       0.00        6.8
10:58             252       27.4         60       17.8      474.2       13.8       18.8        9.9     1013.0       20.8       15.2        6.6        0.0        6.6       0.00      112.6       0.48       0.00        6.8
11:00             300       20.9         60       17.9      474.2       14.8       18.9       10.0     1013.0       20.8       15.2        6.6        0.0        6.6       0.00      113.1       0.48       0.00        6.8
11:02             299       19.3         59       17.9      474.2       16.0       18.9        9.8     1013.0       20.8       15.2        6.6        0.0        6.6       0.00      113.6       0.48       0.00        6.8
11:04             311       20.9         58       18.0      474.2       13.5       18.9        9.6     1013.0       20.8       15.2        6.6        0.0        6.6       0.00      114.3       0.48       0.00        6.8
11:06             309       16.1         58       18.1      474.2       16.1       18.9        9.7     1013.0       20.8       15.2        6.6        0.0        6.6       0.00      114.7       0.48       0.00        6.8
11:08             307       19.3         59       18.1      474.2       15.1       19.1       10.0     1012.9       20.8       15.2        6.6        0.0        6.6       0.00      115.2       0.48       0.00        6.8
11:10             305       17.7         58       18.2      474.2       15.8       19.1        9.8     1013.0       20.8       15.2        6.6        0.0        6.6       0.00      115.7       0.48       0.00        6.8
11:12             275       12.9         59       18.2      474.2       16.9       19.2       10.1     1013.0       20.8       15.2        6.6        0.0        6.6       0.00      116.0       0.48       0.00        6.8
11:14             340       29.0         59       18.3      474.2       14.0       19.3       10.2     1013.0       20.8       15.2        6.6        0.0        6.6       0.00      116.5       0.48       0.00        6.8
11:16             304       22.5         58       18.4      474.2       13.7       19.3       10.0     1013.0       20.8       15.2        6.6        0.0        6.6       0.00      116.9       0.48       0.00        6.8
11:18             355       14.5         57       18.4      474.2       16.0       19.2        9.7     1013.1       20.8       15.2        6.6        0.0        6.6       0.00      117.3       0.48       0.00        6.8
11:20             288       17.7         57       18.4      474.2       14.9       19.2        9.7     1013.1       20.8       15.2        6.6        0.0        6.6       0.00      117.8       0.48       0.00        6.8
11:22             311       16.1         57       18.4      474.2       14.9       19.2        9.7     1013.1       20.8       15.2        6.6        0.0        6.6       0.00      118.1       0.48       0.00        6.8
11:24             264       16.1         56       18.4      474.2       14.9       19.2        9.5     1013.0       20.8       15.2        6.6        0.0        6.6       0.00      118.6       0.48       0.00        6.8
11:26             311       16.1         55       18.4      474.2       14.9       19.1        9.2     1013.1       20.8       15.2        6.6        0.0        6.6       0.00      119.0       0.48       0.00        6.8
11:28             320       17.7         55       18.3      474.2       14.5       19.0        9.1     1013.0       20.8       15.2        6.6        0.0        6.6       0.00      119.5       0.48       0.00        6.8
11:30             313       14.5         55       18.3      474.2       18.3       19.0        9.1     1013.0       20.8       15.2        6.6        0.0        6.6       0.00      119.9       0.48       0.00        6.8
11:32             310       17.7         56       18.3      474.2       16.4       19.1        9.4     1013.0       20.8       15.2        6.6        0.0        6.6       0.00      120.4       0.48       0.00        6.8
11:34             335       22.5         57       18.3      474.2       18.3       19.1        9.6     1013.0       20.8       15.2        6.6        0.0        6.6       0.00      120.7       0.48       0.00        6.8
11:36             299       16.1         56       18.3      474.2       15.9       19.1        9.4     1012.9       20.8       15.2        6.6        0.0        6.6       0.00      121.1       0.48       0.00        6.8
11:38             310        9.7         57       18.3      474.2       17.5       19.2        9.7     1012.9       20.8       15.2        6.6        0.0        6.6       0.00      121.4       0.48       0.00        6.8
11:40             281       20.9         56       18.4      474.2       14.9       19.2        9.5     1012.9       20.8       15.2        6.6        0.0        6.6       0.00      121.9       0.48       0.00        6.8
11:42             318       19.3         56       18.4      474.2       14.3       19.2        9.5     1012.9       20.8       15.2        6.6        0.0        6.6       0.00      122.3       0.48       0.00        6.8
11:44             281       17.7         56       18.4      474.2       16.6       19.2        9.5     1012.9       20.8       15.2        6.6        0.0        6.6       0.00      122.8       0.48       0.00        6.8
11:46             285       25.7         55       18.5      474.2       14.5       19.2        9.3     1012.9       20.8       15.2        6.6        0.0        6.6       0.00      123.4       0.48       0.00        6.8
11:48             306       25.7         54       18.4      474.2       16.0       19.1        9.0     1012.9       20.8       15.2        6.6        0.0        6.6       0.00      124.1       0.48       0.00        6.8
11:50             317       17.7         52       18.4      474.2       15.0       19.0        8.4     1012.9       20.8       15.2        6.6        0.0        6.6       0.00      124.7       0.48       0.00        6.8
11:52             304       19.3         52       18.4      474.2       14.4       19.0        8.4     1012.8       20.8       15.2        6.6        0.0        6.6       0.00      125.3       0.48       0.00        6.8
11:54             283       19.3         52       18.4      474.2       14.7       19.0        8.4     1012.8       20.8       15.2        6.6        0.0        6.6       0.00      125.8       0.48       0.00        6.8
11:56             323        6.4         52       18.4      474.2       18.4       19.0        8.4     1012.7       20.8       15.2        6.6        0.0        6.6       0.00      126.2       0.48       0.00        6.8
11:58             296       14.5         51       18.6      474.2       18.6       19.1        8.2     1012.7       20.8       15.2        6.6        0.0        6.6       0.00      126.5       0.48       0.00        6.8
12:00             302       24.1         52       18.7      474.2       15.0       19.2        8.6     1012.7       20.8       15.2        6.6        0.0        6.6       0.00      126.9       0.48       0.00        6.8
12:02             317       17.7         51       18.8      474.2       15.5       19.3        8.5     1012.6       20.8       15.2        6.6        0.0        6.6       0.00      127.5       0.48       0.00        6.8
12:04             287       22.5         51       18.8      474.2       14.9       19.3        8.5     1012.6       20.8       15.2        6.6        0.0        6.6       0.00      127.9       0.48       0.00        6.8
12:06             318       24.1         50       18.9      474.2       14.4       19.3        8.2     1012.7       20.8       15.2        6.6        0.0        6.6       0.00      128.6       0.48       0.00        6.8
12:08             331       25.7         50       18.9      474.2       13.8       19.3        8.2     1012.8       20.8       15.2        6.6        0.0        6.6       0.00      129.3       0.48       0.00        6.8
12:10             323       27.4         51       18.8      474.2       14.6       19.3        8.5     1012.7       20.8       15.2        6.6        0.0        6.6       0.00      129.9       0.48       0.00        6.8
12:12             307       19.3         51       18.9      474.2       16.6       19.4        8.6     1012.7       20.8       15.2        6.6        0.0        6.6       0.00      130.4       0.48       0.00        6.8
12:14             281       14.5         51       19.0      474.2       16.2       19.5        8.6     1012.6       20.8       15.2        6.6        0.0        6.6       0.00      130.8       0.48       0.00        6.8
12:16             286       19.3         50       19.1      474.2       17.3       19.5        8.4     1012.6       20.8       15.2        6.6        0.0        6.6       0.00      131.4       0.48       0.00        6.8
12:18             257       22.5         50       19.0      474.2       15.7       19.4        8.4     1012.7       20.8       15.2        6.6        0.0        6.6       0.00      131.9       0.48       0.00        6.8
12:20             273       12.9         51       19.0      474.2       17.2       19.5        8.6     1012.7       20.8       15.2        6.6        0.0        6.6       0.00      132.2       0.48       0.00        6.8
12:22             307       17.7         50       19.1      474.2       19.1       19.6        8.5     1012.8       20.8       15.2        6.6        0.0        6.6       0.00      132.6       0.48       0.00        6.8
12:24             292        6.4         50       19.3      474.2       19.3       19.7        8.6     1012.8       20.8       15.2        6.6        0.0        6.6       0.00      132.7       0.48       0.00        6.8
12:26             324       20.9         49       19.5      474.2       19.5       19.9        8.5     1012.8       20.8       15.2        6.6        0.0        6.6       0.00      133.0       0.48       0.00        6.8
12:28             304       22.5         48       19.6      474.2       15.8       19.9        8.3     1012.8       20.8       15.2        6.6        0.0        6.6       0.00      133.4       0.48       0.00        6.8
12:30             280       12.9         47       19.6      474.2       18.3       19.8        7.9     1012.6       20.8       15.2        6.6        0.0        6.6       0.00      133.9       0.48       0.00        6.8
12:32             275       14.5         46       19.6      474.2       17.8       19.8        7.6     1012.6       20.8       15.2        6.6        0.0        6.6       0.00      134.4       0.48       0.00        6.8
12:34             285       20.9         47       19.6      474.2       17.3       19.8        7.9     1012.6       20.8       15.2        6.6        0.0        6.6       0.00      134.9       0.48       0.00        6.8
12:36             301       19.3         46       19.6      474.2       16.8       19.8        7.6     1012.7       20.8       15.2        6.6        0.0        6.6       0.00      135.5       0.48       0.00        6.8
12:38             319       19.3         47       19.5      474.2       17.3       19.8        7.9     1012.6       20.8       15.2        6.6        0.0        6.6       0.00      135.9       0.48       0.00        6.8
12:40             319       19.3         47       19.4      474.2       18.7       19.7        7.8     1012.6       20.8       15.2        6.6        0.0        6.6       0.00      136.4       0.48       0.00        6.8
12:42             277        9.7         47       19.4      474.2       18.1       19.7        7.8     1012.6       20.8       15.2        6.6        0.0        6.6       0.00      136.8       0.48       0.00        6.8
12:44             275       12.9         47       19.4      474.2       17.2       19.7        7.8     1012.6       20.8       15.2        6.6        0.0        6.6       0.00      137.2       0.48       0.00        6.8
12:46             295       24.1         46       19.4      474.2       15.1       19.7        7.5     1012.6       20.8       15.2        6.6        0.0        6.6       0.00      137.7       0.48       0.00        6.8
12:48             304       20.9         47       19.5      474.2       16.8       19.8        7.9     1012.5       20.8       15.2        6.6        0.0        6.6       0.00      138.2       0.48       0.00        6.8
12:50             262       22.5         46       19.5      474.2       16.0       19.7        7.6     1012.5       20.8       15.2        6.6        0.0        6.6       0.00      138.7       0.48       0.00        6.8
12:52             284       19.3         45       19.6      474.2       16.4       19.7        7.3     1012.4       20.8       15.2        6.6        0.0        6.6       0.00      139.3       0.48       0.00        6.8
12:54             291       11.3         47       19.6      474.2       19.6       19.8        7.9     1012.4       20.8       15.2        6.6        0.0        6.6       0.00      139.6       0.48       0.00        6.8
12:56             283       25.7         47       19.7      474.2       14.9       20.0        8.1     1012.4       20.8       15.2        6.6        0.0        6.6       0.00      140.0       0.48       0.00        6.8
12:58             317       22.5         46       19.8      474.2       18.6       20.0        7.8     1012.4       20.8       15.2        6.6        0.0        6.6       0.00      140.5       0.48       0.00        6.8
13:00             286       17.7         47       19.9      474.2       16.8       20.2        8.3     1012.4       20.8       15.2        6.6        0.0        6.6       0.00      140.9       0.48       0.00        6.8
13:02             329       17.7         46       19.9      474.2       18.7       20.1        7.9     1012.5       20.8       15.2        6.6        0.0        6.6       0.00      141.4       0.48       0.00        6.8
13:04             290       24.1         46       19.9      474.2       17.7       20.1        7.9     1012.4       20.8       15.2        6.6        0.0        6.6       0.00      141.8       0.48       0.00        6.8
13:06             317        6.4         47       19.9      474.2       19.9       20.2        8.3     1012.4       20.8       15.2        6.6        0.0        6.6       0.00      142.2       0.48       0.00        6.8
13:08             294       27.4         47       19.9      474.2       16.0       20.2        8.3     1012.5       20.8       15.2        6.6        0.0        6.6       0.00      142.6       0.48       0.00        6.8
13:10             301       17.7         45       19.9      474.2       16.6       20.1        7.7     1012.5       20.8       15.2        6.6        0.0        6.6       0.00      143.2       0.48       0.00        6.8
13:12             280       20.9         46       19.9      474.2       16.2       20.1        7.9     1012.5       20.8       15.2        6.6        0.0        6.6       0.00      143.7       0.48       0.00        6.8
13:14             284       14.5         46       19.9      474.2       17.7       20.1        7.9     1012.5       20.8       15.2        6.6        0.0        6.6       0.00      144.2       0.48       0.00        6.8
13:16             301       14.5         46       19.9      474.2       17.2       20.1        7.9     1012.4       20.8       15.2        6.6        0.0        6.6       0.00      144.6       0.48       0.00        6.8
13:18             272       25.7         46       19.8      474.2       15.1       20.1        7.9     1012.5       20.8       15.2        6.6        0.0        6.6       0.00      145.0       0.48       0.00        6.8
13:20             279       19.3         46       19.9      474.2       16.5       20.1        7.9     1012.5       20.8       15.2        6.6        0.0        6.6       0.00      145.6       0.48       0.00        6.8
13:22             333       14.5         46       19.8      474.2       19.8       20.1        7.9     1012.4       20.8       15.2        6.6        0.0        6.6       0.00      146.2       0.48       0.00        6.8
13:24             301       24.1         46       19.8      474.2       19.8       20.1        7.9     1012.4       20.8       15.2        6.6        0.0        6.6       0.00      146.7       0.48       0.00        6.8
13:26             321       20.9         47       19.9      474.2       16.0       20.2        8.3     1012.4       20.8       15.2        6.6        0.0        6.6       0.00      147.1       0.48       0.00        6.8
13:28             298       17.7         46       20.0      474.2       19.3       20.2        8.0     1012.6       20.8       15.2        6.6        0.0        6.6       0.00      147.6       0.48       0.00        6.8
13:29             281       14.5         45       19.9      474.2       18.3       20.1        7.7     1012.4       20.8       15.2        6.6        0.0        6.6       0.00      148.0       0.48       0.00        6.8
13:32             316       24.1         46       20.0      474.2       17.4       20.2        8.0     1012.4       20.8       15.2        6.6        0.0        6.6       0.00      148.5       0.48       0.00        6.8
13:34             264       16.1         46       20.1      474.2       17.9       20.3        8.1     1012.4       20.8       15.2        6.6        0.0        6.6       0.00      148.8       0.48       0.00        6.8
13:36             313       25.7         45       20.2      474.2       18.0       20.4        7.9     1012.4       20.8       15.2        6.6        0.0        6.6       0.00      149.3       0.48       0.00        6.8
13:38             321       16.1         45       20.1      474.2       20.1       20.3        7.8     1012.3       20.8       15.2        6.6        0.0        6.6       0.00      149.7       0.48       0.00        6.8
13:40             301       16.1         46       20.1      474.2       20.1       20.3        8.1     1012.4       20.8       15.2        6.6        0.0        6.6       0.00      150.2       0.48       0.00        6.8
13:42             290       12.9         46       20.1      474.2       20.1       20.4        8.1     1012.2       20.8       15.2        6.6        0.0        6.6       0.00      150.4       0.48       0.00        6.8
13:43             328       14.5         47       20.2      474.2       19.0       20.5        8.5     1012.2       20.8       15.2        6.6        0.0        6.6       0.00      150.7       0.48       0.00        6.8
13:46             321       14.5         46       20.3      474.2       18.2       20.6        8.3     1012.2       20.8       15.2        6.6        0.0        6.6       0.00      151.0       0.48       0.00        6.8
13:48             288       14.5         45       20.3      474.2       17.8       20.5        8.0     1012.2       20.8       15.2        6.6        0.0        6.6       0.00      151.4       0.48       0.00        6.8
13:50             286        6.4         45       20.3      474.2       20.3       20.5        8.0     1012.2       20.8       15.2        6.6        0.0        6.6       0.00      151.7       0.48       0.00        6.8
13:52             344       32.2         46       20.3      474.2       16.6       20.6        8.3     1012.0       20.8       15.2        6.6        0.0        6.6       0.00      152.2       0.48       0.00        6.8
13:54             292       14.5         46       20.4      474.2       18.3       20.6        8.4     1012.0       20.8       15.2        6.6        0.0        6.6       0.00      152.6       0.48       0.00        6.8
13:56             317       12.9         46       20.4      474.2       20.4       20.6        8.4     1012.0       20.8       15.2        6.6        0.0        6.6       0.00      153.0       0.48       0.00        6.8
13:58             317       12.9         46       20.4      474.2       19.7       20.6        8.4     1012.0       20.8       15.2        6.6        0.0        6.6       0.00      153.3       0.48       0.00        6.8
14:00             317       14.5         46       20.5      474.2       18.0       20.7        8.5     1012.0       20.8       15.2        6.6        0.0        6.6       0.00      153.6       0.48       0.00        6.8
14:02             325        9.7         45       20.6      474.2       19.9       20.8        8.3     1012.0       20.8       15.2        6.6        0.0        6.6       0.00      154.0       0.48       0.00        6.8
14:04             265       16.1         45       20.7      474.2       18.2       20.9        8.4     1012.0       20.8       15.2        6.6        0.0        6.6       0.00      154.3       0.48       0.00        6.8
14:06             344       17.7         45       20.7      474.2       17.8       20.9        8.4     1012.0       20.8       15.2        6.6        0.0        6.6       0.00      154.7       0.48       0.00        6.8
14:08             324       12.9         45       20.7      474.2       19.5       20.9        8.3     1012.0       20.8       15.2        6.6        0.0        6.6       0.00      155.0       0.48       0.00        6.8
14:10             315       20.9         44       20.6      474.2       18.0       20.7        7.9     1012.0       20.8       15.2        6.6        0.0        6.6       0.00      155.5       0.48       0.00        6.8
14:12             298       20.9         45       20.4      474.2       16.6       20.6        8.1     1012.0       20.8       15.2        6.6        0.0        6.6       0.00      155.8       0.48       0.00        6.8
14:14             297        8.0         45       20.3      474.2       19.6       20.5        8.0     1011.9       20.8       15.2        6.6        0.0        6.6       0.00      156.1       0.48       0.00        6.8
14:16             302       12.9         46       20.3      474.2       18.6       20.5        8.3     1011.9       20.8       15.2        6.6        0.0        6.6       0.00      156.4       0.48       0.00        6.8
14:18             313       19.3         45       20.3      474.2       17.7       20.5        8.0     1011.9       20.8       15.2        6.6        0.0        6.6       0.00      156.8       0.48       0.00        6.8
14:20             318        8.0         45       20.3      474.2       19.6       20.5        8.0     1011.9       20.8       15.2        6.6        0.0        6.6       0.00      157.2       0.48       0.00        6.8
14:22             338        9.7         45       20.4      474.2       19.2       20.6        8.1     1011.9       20.8       15.2        6.6        0.0        6.6       0.00      157.5       0.48       0.00        6.8
14:24             340       12.9         46       20.5      474.2       19.4       20.7        8.5     1011.8       20.8       15.2        6.6        0.0        6.6       0.00      157.8       0.48       0.00        6.8
14:26             348        4.8         45       20.6      474.2       20.6       20.8        8.3     1011.7       20.8       15.2        6.6        0.0        6.6       0.00      158.0       0.48       0.00        6.8
14:28             321       12.9         45       20.8      474.2       20.1       21.0        8.4     1011.8       20.8       15.2        6.6        0.0        6.6       0.00      158.3       0.48       0.00        6.8
14:30             328       17.7         45       20.9      474.2       18.5       21.1        8.6     1011.6       20.9       15.2        6.6        0.0        6.6       0.00      158.5       0.48       0.00        6.8
14:32             321        9.7         44       21.1      474.2       20.4       21.2        8.3     1011.7       21.1       15.2        6.6        0.0        6.6       0.00      158.9       0.48       0.00        6.8
14:34             308       17.7         43       21.0      474.2       18.6       21.1        8.0     1011.8       21.1       15.2        6.6        0.0        6.6       0.00      159.4       0.48       0.00        6.8
14:36             288        8.0         43       20.9      474.2       20.9       21.0        7.9     1011.8       21.1       15.2        6.6        0.0        6.6       0.00      159.7       0.48       0.00        6.8
14:38             317        3.2         44       20.8      474.2       20.8       20.9        8.1     1011.8       21.1       15.2        6.6        0.0        6.6       0.00      160.0       0.48       0.00        6.8
14:40             319       14.5         45       20.8      474.2       18.8       21.0        8.5     1011.8       21.1       15.2        6.6        0.0        6.6       0.00      160.3       0.48       0.00        6.8
14:42             294       11.3         45       20.9      474.2       20.9       21.1        8.5     1011.8       21.1       15.2        6.6        0.0        6.6       0.00      160.6       0.48       0.00        6.8
14:44             312        8.0         45       21.0      474.2       21.0       21.2        8.6     1011.8       21.1       15.2        6.6        0.0        6.6       0.00      160.8       0.48       0.00        6.8
14:46             318       14.5         43       21.1      474.2       18.7       21.2        8.1     1011.8       21.1       15.2        6.6        0.0        6.6       0.00      161.1       0.48       0.00        6.8
14:48             317       14.5         44       21.1      474.2       20.0       21.2        8.3     1011.8       21.1       15.2        6.6        0.0        6.6       0.00      161.3       0.48       0.00        6.8
14:50             348       12.9         43       21.0      474.2       20.3       21.1        8.0     1011.7       21.1       15.2        6.6        0.0        6.6       0.00      161.7       0.48       0.00        6.8
14:52             322       17.7         44       20.8      474.2       18.4       21.0        8.1     1011.8       21.1       15.2        6.6        0.0        6.6       0.00      162.0       0.48       0.00        6.8
14:54             336       12.9         44       20.6      474.2       19.5       20.8        7.9     1011.8       21.1       15.2        6.6        0.0        6.6       0.00      162.3       0.48       0.00        6.8
14:56             322       14.5         45       20.4      474.2       19.8       20.6        8.1     1011.9       21.1       15.2        6.6        0.0        6.6       0.00      162.7       0.48       0.00        6.8
14:58             312        6.4         45       20.3      474.2       20.3       20.5        8.0     1011.8       21.1       15.2        6.6        0.0        6.6       0.00      163.0       0.48       0.00        6.8
15:00             311        4.8         46       20.2      474.2       20.2       20.5        8.2     1011.7       21.1       15.2        6.6        0.0        6.6       0.00      163.1       0.48       0.00        6.8
15:02              34       20.9         47       20.3      474.2       16.5       20.6        8.6     1011.8       21.1       15.2        6.6        0.0        6.6       0.00      163.4       0.48       0.00        6.8
15:04             324        8.0         46       20.4      474.2       20.4       20.6        8.4     1011.8       21.1       15.2        6.6        0.0        6.6       0.00      163.7       0.48       0.00        6.8
15:06             304       20.9         45       20.4      474.2       19.7       20.6        8.1     1011.9       21.1       15.2        6.6        0.0        6.6       0.00      164.0       0.48       0.00        6.8
15:08             316       14.5         45       20.3      474.2       17.8       20.5        8.0     1011.8       21.1       15.2        6.6        0.0        6.6       0.00      164.5       0.48       0.00        6.8
15:10             328       16.1         45       20.2      474.2       17.2       20.4        7.9     1011.8       21.1       15.2        6.6        0.0        6.6       0.00      164.9       0.48       0.00        6.8
15:12             322       12.9         46       20.2      474.2       18.0       20.4        8.2     1011.8       21.1       15.2        6.6        0.0        6.6       0.00      165.2       0.48       0.00        6.8
15:14               5        9.7         45       20.1      474.2       20.1       20.3        7.8     1011.7       21.1       15.2        6.6        0.0        6.6       0.00      165.4       0.48       0.00        6.8
15:16             343       12.9         46       20.1      474.2       20.1       20.4        8.1     1011.7       21.1       15.2        6.6        0.0        6.6       0.00      165.6       0.48       0.00        6.8
15:18             315       16.1         46       20.2      474.2       19.5       20.4        8.2     1011.8       21.1       15.2        6.6        0.0        6.6       0.00      165.9       0.48       0.00        6.8
15:20             312        3.2         45       20.2      474.2       20.2       20.4        7.9     1011.7       21.1       15.2        6.6        0.0        6.6       0.00      166.1       0.48       0.00        6.8
15:22             321        6.4         46       20.3      474.2       20.3       20.6        8.3     1011.7       21.1       15.2        6.6        0.0        6.6       0.00      166.3       0.48       0.00        6.8
15:24             355        8.0         46       20.5      474.2       19.8       20.7        8.5     1011.8       21.1       15.2        6.6        0.0        6.6       0.00      166.5       0.48       0.00        6.8
15:26             307       20.9         45       20.6      474.2       17.7       20.8        8.3     1011.9       21.1       15.2        6.6        0.0        6.6       0.00      167.0       0.48       0.00        6.8
15:28             306       12.9         44       20.6      474.2       20.6       20.8        7.9     1011.9       21.1       15.2        6.6        0.0        6.6       0.00      167.3       0.48       0.00        6.8
15:29             309        6.4         44       20.7      474.2       20.7       20.8        8.0     1011.8       21.1       15.2        6.6        0.0        6.6       0.00      167.7       0.48       0.00        6.8
15:32             300        8.0         44       20.7      474.2       20.0       20.8        8.0     1012.0       21.1       15.2        6.6        0.0        6.6       0.00      167.9       0.48       0.00        6.8
15:34             319       12.9         44       20.6      474.2       20.6       20.8        7.9     1011.9       21.1       15.2        6.6        0.0        6.6       0.00      168.3       0.48       0.00        6.8
15:36             335        9.7         45       20.7      474.2       20.0       20.9        8.3     1011.9       21.1       15.2        6.6        0.0        6.6       0.00      168.6       0.48       0.00        6.8
15:38             321        8.0         44       20.7      474.2       20.7       20.8        8.0     1011.9       21.1       15.2        6.6        0.0        6.6       0.00      168.9       0.48       0.00        6.8
15:40              10       16.1         45       20.7      474.2       17.7       20.9        8.3     1011.8       21.1       15.2        6.6        0.0        6.6       0.00      169.1       0.48       0.00        6.8
15:42             309       16.1         45       20.7      474.2       19.1       20.9        8.4     1011.9       21.1       15.2        6.6        0.0        6.6       0.00      169.5       0.48       0.00        6.8
15:44             302        8.0         44       20.7      474.2       20.1       20.9        8.0     1011.8       21.1       15.2        6.6        0.0        6.6       0.00      169.8       0.48       0.00        6.8
15:46             313       14.5         44       20.7      474.2       18.2       20.9        8.0     1011.8       21.1       15.2        6.6        0.0        6.6       0.00      170.0       0.48       0.00        6.8
15:48             311        3.2         44       20.8      474.2       20.8       20.9        8.1     1011.8       21.1       15.2        6.6        0.0        6.6       0.00      170.3       0.48       0.00        6.8
15:50             322       14.5         44       20.8      474.2       18.3       20.9        8.1     1011.8       21.1       15.2        6.6        0.0        6.6       0.00      170.6       0.48       0.00        6.8
15:52             281       14.5         44       20.7      474.2       20.7       20.9        8.0     1011.8       21.1       15.2        6.6        0.0        6.6       0.00      170.9       0.48       0.00        6.8
15:54             306       19.3         44       20.7      474.2       20.7       20.9        8.0     1011.9       21.1       15.2        6.6        0.0        6.6       0.00      171.2       0.48       0.00        6.8
15:56             315       12.9         44       20.7      474.2       20.1       20.9        8.0     1011.9       21.1       15.2        6.6        0.0        6.6       0.00      171.4       0.48       0.00        6.8
15:58             309        6.4         44       20.7      474.2       20.7       20.9        8.0     1011.8       21.1       15.2        6.6        0.0        6.6       0.00      171.8       0.48       0.00        6.8
16:00             306       12.9         44       20.7      474.2       20.7       20.9        8.0     1011.9       21.1       15.2        6.6        0.0        6.6       0.00      172.0       0.48       0.00        6.8
16:02             297       11.3         44       20.7      474.2       19.1       20.9        8.0     1011.8       21.1       15.2        6.6        0.0        6.6       0.00      172.3       0.48       0.00        6.8
16:04             287       12.9         44       20.7      474.2       18.6       20.8        8.0     1011.8       21.1       15.2        6.6        0.0        6.6       0.00      172.7       0.48       0.00        6.8
16:06             317        8.0         44       20.6      474.2       20.6       20.7        7.9     1011.9       21.1       15.2        6.6        0.0        6.6       0.00      173.1       0.48       0.00        6.8
16:08             315       12.9         44       20.4      474.2       20.4       20.6        7.8     1011.9       21.1       15.2        6.6        0.0        6.6       0.00      173.3       0.48       0.00        6.8
16:10             321        8.0         44       20.3      474.2       20.3       20.5        7.7     1011.8       21.1       15.2        6.6        0.0        6.6       0.00      173.6       0.48       0.00        6.8
16:12             311        8.0         46       20.3      474.2       19.6       20.6        8.3     1011.9       21.1       15.2        6.6        0.0        6.6       0.00      173.8       0.48       0.00        6.8
16:14             311        6.4         46       20.3      474.2       20.3       20.6        8.3     1011.8       21.1       15.2        6.6        0.0        6.6       0.00      174.0       0.48       0.00        6.8
16:16             329       19.3         45       20.4      474.2       16.9       20.6        8.1     1011.9       21.1       15.2        6.6        0.0        6.6       0.00      174.2       0.48       0.00        6.8
16:18             286       11.3         45       20.3      474.2       19.2       20.5        8.0     1011.9       21.1       15.2        6.6        0.0        6.6       0.00      174.6       0.48       0.00        6.8
16:20             320        9.7         45       20.3      474.2       20.3       20.5        8.0     1011.8       21.1       15.2        6.6        0.0        6.6       0.00      174.9       0.48       0.00        6.8
16:22             317        9.7         45       20.3      474.2       19.2       20.5        8.0     1011.9       21.1       15.2        6.6        0.0        6.6       0.00      175.2       0.48       0.00        6.8
16:24             338       17.7         45       20.2      474.2       19.5       20.4        7.9     1012.0       21.1       15.2        6.6        0.0        6.6       0.00      175.7       0.48       0.00        6.8
16:26             312        9.7         46       20.2      474.2       19.5       20.4        8.2     1011.9       21.1       15.2        6.6        0.0        6.6       0.00      175.9       0.48       0.00        6.8
16:28             288       14.5         46       20.1      474.2       20.1       20.4        8.1     1011.9       21.1       15.2        6.6        0.0        6.6       0.00      176.3       0.48       0.00        6.8
16:30             321       14.5         46       20.1      474.2       17.9       20.3        8.1     1012.0       21.1       15.2        6.6        0.0        6.6       0.00      176.6       0.48       0.00        6.8
16:32             309       24.1         46       20.1      474.2       17.4       20.3        8.1     1011.9       21.1       15.2        6.6        0.0        6.6       0.00      176.9       0.48       0.00        6.8
16:34             327       22.5         46       20.1      474.2       15.9       20.3        8.1     1011.9       21.1       15.2        6.6        0.0        6.6       0.00      177.4       0.48       0.00        6.8
16:36             321        9.7         46       20.1      474.2       19.4       20.4        8.1     1012.0       21.1       15.2        6.6        0.0        6.6       0.00      177.7       0.48       0.00        6.8
16:38             315       16.1         45       20.2      474.2       20.2       20.4        7.9     1011.9       21.1       15.2        6.6        0.0        6.6       0.00      178.2       0.48       0.00        6.8
16:40             298       16.1         45       20.2      474.2       17.1       20.4        7.9     1012.0       21.1       15.2        6.6        0.0        6.6       0.00      178.5       0.48       0.00        6.8
16:42             303       17.7         46       20.2      474.2       18.0       20.4        8.2     1012.0       21.1       15.2        6.6        0.0        6.6       0.00      179.0       0.48       0.00        6.8
16:44             292        8.0         46       20.2      474.2       19.5       20.4        8.2     1012.0       21.1       15.2        6.6        0.0        6.6       0.00      179.2       0.48       0.00        6.8
16:46             306       11.3         45       20.2      474.2       20.2       20.4        7.9     1012.0       21.1       15.2        6.6        0.0        6.6       0.00      179.5       0.48       0.00        6.8
16:48             318        9.7         45       20.2      474.2       20.2       20.4        7.9     1012.0       21.1       15.2        6.6        0.0        6.6       0.00      179.8       0.48       0.00        6.8
16:50             321       19.3         45       20.2      474.2       16.6       20.4        7.9     1011.9       21.1       15.2        6.6        0.0        6.6       0.00      180.2       0.48       0.00        6.8
16:52             310        4.8         45       20.2      474.2       20.2       20.4        7.9     1011.9       21.1       15.2        6.6        0.0        6.6       0.00      180.5       0.48       0.00        6.8
16:54             332       19.3         45       20.2      474.2       16.6       20.4        7.9     1011.9       21.1       15.2        6.6        0.0        6.6       0.00      180.8       0.48       0.00        6.8
16:56             311        8.0         45       20.2      474.2       19.5       20.4        7.9     1011.9       21.1       15.2        6.6        0.0        6.6       0.00      181.2       0.48       0.00        6.8
16:58             292       14.5         45       20.2      474.2       18.0       20.4        7.9     1012.0       21.1       15.2        6.6        0.0        6.6       0.00      181.5       0.48       0.00        6.8
17:00             304        8.0         45       20.2      474.2       20.2       20.4        7.9     1012.0       21.1       15.2        6.6        0.0        6.6       0.00      181.8       0.48       0.00        6.8
17:02             307       12.9         45       20.2      474.2       18.0       20.4        7.9     1012.0       21.1       15.2        6.6        0.0        6.6       0.00      182.1       0.48       0.00        6.8
17:04             306       11.3         45       20.2      474.2       19.5       20.4        7.9     1012.1       21.1       15.2        6.6        0.0        6.6       0.00      182.3       0.48       0.00        6.8
17:06             329        6.4         45       20.2      474.2       20.2       20.4        7.9     1012.1       21.1       15.2        6.6        0.0        6.6       0.00      182.6       0.48       0.00        6.8
17:08             307       12.9         45       20.2      474.2       18.5       20.4        7.9     1012.1       21.1       15.2        6.6        0.0        6.6       0.00      182.9       0.48       0.00        6.8
17:10             301       12.9         45       20.1      474.2       18.0       20.3        7.8     1012.1       21.1       15.2        6.6        0.0        6.6       0.00      183.2       0.48       0.00        6.8
17:12             302        6.4         46       20.1      474.2       20.1       20.4        8.1     1012.2       21.1       15.2        6.6        0.0        6.6       0.00      183.4       0.48       0.00        6.8
17:14             288       14.5         46       20.1      474.2       17.4       20.3        8.1     1012.2       21.1       15.2        6.6        0.0        6.6       0.00      183.7       0.48       0.00        6.8
17:16             288        6.4         45       20.0      474.2       20.0       20.2        7.7     1012.2       21.1       15.2        6.6        0.0        6.6       0.00      184.0       0.48       0.00        6.8
17:18             301       11.3         46       20.0      474.2       20.0       20.2        8.0     1012.1       21.1       15.2        6.6        0.0        6.6       0.00      184.2       0.48       0.00        6.8
17:20             279       19.3         46       20.0      474.2       18.3       20.2        8.0     1012.2       21.1       15.2        6.6        0.0        6.6       0.00      184.6       0.48       0.00        6.8
17:22             301       14.5         45       19.9      474.2       18.3       20.1        7.7     1012.1       21.1       15.2        6.6        0.0        6.6       0.00      184.9       0.48       0.00        6.8
17:24             315        8.0         45       19.9      474.2       19.9       20.1        7.6     1012.1       21.1       15.2        6.6        0.0        6.6       0.00      185.2       0.48       0.00        6.8
17:26             290       11.3         46       19.9      474.2       18.2       20.1        7.9     1012.1       21.1       15.2        6.6        0.0        6.6       0.00      185.5       0.48       0.00        6.8
17:28             301       12.9         46       19.8      474.2       19.1       20.1        7.9     1012.1       21.1       15.2        6.6        0.0        6.6       0.00      185.8       0.48       0.00        6.8
17:30             302        6.4         46       19.8      474.2       19.8       20.1        7.9     1012.0       21.1       15.2        6.6        0.0        6.6       0.00      186.0       0.48       0.00        6.8
17:32             302        6.4         46       19.8      474.2       19.8       20.0        7.8     1012.1       21.1       15.2        6.6        0.0        6.6       0.00      186.2       0.48       0.00        6.8
17:34             302        8.0         46       19.7      474.2       19.0       20.0        7.8     1012.1       21.1       15.2        6.6        0.0        6.6       0.00      186.4       0.48       0.00        6.8
17:36             315        8.0         47       19.6      474.2       19.6       19.9        8.0     1012.0       21.1       15.2        6.6        0.0        6.6       0.00      186.7       0.48       0.00        6.8
17:38             314        4.8         47       19.6      474.2       19.6       19.8        7.9     1012.1       21.1       15.2        6.6        0.0        6.6       0.00      187.0       0.48       0.00        6.8
17:40             292       14.5         48       19.5      474.2       17.3       19.8        8.2     1012.1       21.1       15.2        6.6        0.0        6.6       0.00      187.3       0.48       0.00        6.8
17:42             296        8.0         47       19.4      474.2       19.4       19.7        7.8     1012.1       21.1       15.2        6.6        0.0        6.6       0.00      187.6       0.48       0.00        6.8
17:44             288       12.9         48       19.4      474.2       17.1       19.7        8.1     1012.2       21.1       15.2        6.6        0.0        6.6       0.00      187.9       0.48       0.00        6.8
17:46             304       14.5         48       19.3      474.2       16.6       19.7        8.1     1012.2       21.1       15.2        6.6        0.0        6.6       0.00      188.2       0.48       0.00        6.8
17:48             302       12.9         48       19.3      474.2       17.0       19.6        8.0     1012.3       21.1       15.2        6.6        0.0        6.6       0.00      188.4       0.48       0.00        6.8
17:50             303        6.4         49       19.2      474.2       19.2       19.6        8.3     1012.2       21.1       15.2        6.6        0.0        6.6       0.00      188.7       0.48       0.00        6.8
17:52             303        8.0         49       19.2      474.2       19.2       19.6        8.2     1012.2       21.1       15.2        6.6        0.0        6.6       0.00      188.9       0.48       0.00        6.8
17:54             297       14.5         49       19.1      474.2       17.3       19.5        8.2     1012.3       21.1       15.2        6.6        0.0        6.6       0.00      189.1       0.48       0.00        6.8
17:56             295       11.3         49       19.1      474.2       18.3       19.4        8.1     1012.3       21.1       15.2        6.6        0.0        6.6       0.00      189.3       0.48       0.00        6.8
17:58             302       14.5         49       19.0      474.2       17.2       19.4        8.1     1012.3       21.1       15.2        6.6        0.0        6.6       0.00      189.6       0.48       0.00        6.8
18:00             304       11.3         50       19.0      474.2       17.2       19.4        8.4     1012.3       21.1       15.2        6.6        0.0        6.6       0.00      189.8       0.48       0.00        6.8
18:02             305        4.8         50       18.9      474.2       18.9       19.4        8.3     1012.2       21.1       15.2        6.6        0.0        6.6       0.00      190.0       0.48       0.00        6.8
18:04             305        4.8         50       18.9      474.2       18.9       19.4        8.3     1012.2       21.1       15.2        6.6        0.0        6.6       0.00      190.1       0.48       0.00        6.8
18:06             305        8.0         51       18.9      474.2       18.1       19.4        8.5     1012.4       21.1       15.2        6.6        0.0        6.6       0.00      190.2       0.48       0.00        6.8
18:08             305        8.0         50       18.8      474.2       18.8       19.3        8.2     1012.3       21.1       15.2        6.6        0.0        6.6       0.00      190.5       0.48       0.00        6.8
18:10             304        8.0         51       18.8      474.2       18.0       19.3        8.4     1012.4       21.1       15.2        6.6        0.0        6.6       0.00      190.6       0.48       0.00        6.8
18:12             304       11.3         51       18.8      474.2       18.8       19.3        8.4     1012.4       21.1       15.2        6.6        0.0        6.6       0.00      190.8       0.48       0.00        6.8
18:14             304        6.4         51       18.7      474.2       18.7       19.2        8.4     1012.4       21.1       15.2        6.6        0.0        6.6       0.00      191.0       0.48       0.00        6.8
18:16             304        4.8         51       18.7      474.2       18.7       19.2        8.4     1012.4       21.1       15.2        6.6        0.0        6.6       0.00      191.1       0.48       0.00        6.8
18:18             304        4.8         51       18.7      474.2       18.7       19.2        8.3     1012.4       21.1       15.2        6.6        0.0        6.6       0.00      191.2       0.48       0.00        6.8
18:20             304        8.0         51       18.6      474.2       18.6       19.1        8.3     1012.5       21.1       15.2        6.6        0.0        6.6       0.00      191.4       0.48       0.00        6.8
18:22             302        8.0         52       18.6      474.2       18.6       19.2        8.6     1012.5       21.1       15.2        6.6        0.0        6.6       0.00      191.6       0.48       0.00        6.8
18:24             302        6.4         52       18.6      474.2       18.6       19.2        8.6     1012.5       21.1       15.2        6.6        0.0        6.6       0.00      191.8       0.48       0.00        6.8
18:26             302        4.8         52       18.6      474.2       18.6       19.1        8.5     1012.5       21.1       15.2        6.6        0.0        6.6       0.00      191.9       0.48       0.00        6.8
18:28             302        6.4         52       18.5      474.2       18.5       19.1        8.5     1012.5       21.1       15.2        6.6        0.0        6.6       0.00      192.1       0.48       0.00        6.8
18:30             302        6.4         52       18.5      474.2       18.5       19.1        8.5     1012.6       21.1       15.2        6.6        0.0        6.6       0.00      192.2       0.48       0.00        6.8
18:32             302        8.0         52       18.4      474.2       17.6       19.0        8.4     1012.7       21.1       15.2        6.6        0.0        6.6       0.00      192.3       0.48       0.00        6.8
18:34             301        6.4         52       18.4      474.2       18.4       19.0        8.4     1012.7       21.1       15.2        6.6        0.0        6.6       0.00      192.5       0.48       0.00        6.8
18:36             300       11.3         52       18.4      474.2       17.6       18.9        8.4     1012.6       21.1       15.2        6.6        0.0        6.6       0.00      192.7       0.48       0.00        6.8
18:38             300        6.4         53       18.4      474.2       18.4       19.0        8.6     1012.8       21.1       15.2        6.6        0.0        6.6       0.00      192.9       0.48       0.00        6.8
18:40             300        6.4         53       18.3      474.2       18.3       18.9        8.6     1012.8       21.1       15.2        6.6        0.0        6.6       0.00      193.1       0.48       0.00        6.8
18:42             300        4.8         53       18.3      474.2       18.3       18.9        8.5     1012.8       21.1       15.2        6.6        0.0        6.6       0.00      193.2       0.48       0.00        6.8
18:44             300        4.8         54       18.3      474.2       18.3       18.9        8.8     1012.9       21.1       15.2        6.6        0.0        6.6       0.00      193.3       0.48       0.00        6.8
18:46             300        4.8         54       18.2      474.2       18.2       18.9        8.8     1012.8       21.1       15.2        6.6        0.0        6.6       0.00      193.5       0.48       0.00        6.8
18:48             300        4.8         54       18.2      474.2       18.2       18.8        8.7     1012.8       21.1       15.2        6.6        0.0        6.6       0.00      193.6       0.48       0.00        6.8
18:50             299        6.4         54       18.2      474.2       18.2       18.8        8.7     1012.9       21.1       15.2        6.6        0.0        6.6       0.00      193.8       0.48       0.00        6.8
18:52             294       11.3         54       18.1      474.2       18.1       18.8        8.7     1012.8       21.1       15.2        6.6        0.0        6.6       0.00      194.0       0.48       0.00        6.8
18:54             292        6.4         54       18.1      474.2       18.1       18.8        8.7     1012.8       21.1       15.2        6.6        0.0        6.6       0.00      194.2       0.48       0.00        6.8
18:56             292        6.4         54       18.1      474.2       18.1       18.8        8.7     1012.9       21.1       15.2        6.6        0.0        6.6       0.00      194.3       0.48       0.00        6.8
18:58             292        3.2         55       18.1      474.2       18.1       18.8        8.9     1012.8       21.1       15.2        6.6        0.0        6.6       0.00      194.5       0.48       0.00        6.8
19:00             292        3.2         55       18.1      474.2       18.1       18.8        8.9     1012.9       21.1       15.2        6.6        0.0        6.6       0.00      194.5       0.48       0.00        6.8
19:02             290        3.2         55       18.1      474.2       18.1       18.8        8.9     1012.9       21.1       15.2        6.6        0.0        6.6       0.00      194.7       0.48       0.00        6.8
19:04             290        0.0         55       18.1      474.2       18.1       18.8        8.9     1013.0       21.1       15.2        6.6        0.0        6.6       0.00      194.7       0.48       0.00        6.8
19:06             289        6.4         55       18.0      474.2       18.0       18.7        8.8     1013.0       21.1       15.2        6.6        0.0        6.6       0.00      194.8       0.48       0.00        6.8
19:08             288        6.4         55       17.9      474.2       17.9       18.7        8.8     1012.9       21.1       15.2        6.6        0.0        6.6       0.00      195.0       0.48       0.00        6.8
19:10             284        6.4         55       17.9      474.2       17.9       18.7        8.8     1012.9       21.1       15.2        6.6        0.0        6.6       0.00      195.2       0.48       0.00        6.8
19:12             284        4.8         55       17.9      474.2       17.9       18.6        8.7     1012.9       21.1       15.2        6.6        0.0        6.6       0.00      195.4       0.48       0.00        6.8
19:14             284        6.4         55       17.9      474.2       17.9       18.6        8.7     1013.0       21.1       15.2        6.6        0.0        6.6       0.00      195.5       0.48       0.00        6.8
19:16             284        9.7         56       17.8      474.2       17.8       18.6        8.9     1012.9       21.1       15.2        6.6        0.0        6.6       0.00      195.7       0.48       0.00        6.8
19:18             284        3.2         56       17.8      474.2       17.8       18.6        8.9     1013.0       21.1       15.2        6.6        0.0        6.6       0.00      195.7       0.48       0.00        6.8
19:20             284        3.2         56       17.8      474.2       17.8       18.6        8.9     1012.9       21.1       15.2        6.6        0.0        6.6       0.00      195.8       0.48       0.00        6.8
19:22             284        4.8         56       17.8      474.2       17.8       18.6        8.9     1012.9       21.1       15.2        6.6        0.0        6.6       0.00      195.9       0.48       0.00        6.8
19:24             284        6.4         56       17.7      474.2       17.7       18.5        8.8     1013.0       21.1       15.2        6.6        0.0        6.6       0.00      196.0       0.48       0.00        6.8
19:26             284        6.4         56       17.7      474.2       17.7       18.5        8.8     1013.0       21.1       15.2        6.6        0.0        6.6       0.00      196.2       0.48       0.00        6.8
19:28             283        9.7         57       17.7      474.2       17.7       18.5        9.1     1013.0       21.1       15.2        6.6        0.0        6.6       0.00      196.4       0.48       0.00        6.8
19:30             283       11.3         57       17.6      474.2       17.6       18.4        9.0     1013.0       21.1       15.2        6.6        0.0        6.6       0.00      196.6       0.48       0.00        6.8
19:32             282        6.4         57       17.6      474.2       17.6       18.4        9.0     1013.0       21.1       15.2        6.6        0.0        6.6       0.00      196.8       0.48       0.00        6.8
19:34             281        4.8         57       17.6      474.2       17.6       18.4        8.9     1013.0       21.1       15.2        6.6        0.0        6.6       0.00      197.0       0.48       0.00        6.8
19:36             281        6.4         57       17.5      474.2       17.5       18.3        8.9     1012.9       21.1       15.2        6.6        0.0        6.6       0.00      197.1       0.48       0.00        6.8
19:38             281        3.2         57       17.5      474.2       17.5       18.3        8.9     1013.0       21.1       15.2        6.6        0.0        6.6       0.00      197.3       0.48       0.00        6.8
19:40             281        3.2         57       17.5      474.2       17.5       18.3        8.9     1013.0       21.1       15.2        6.6        0.0        6.6       0.00      197.4       0.48       0.00        6.8
19:42             281        3.2         57       17.4      474.2       17.4       18.3        8.8     1013.0       21.1       15.2        6.6        0.0        6.6       0.00      197.5       0.48       0.00        6.8
19:44             281        4.8         57       17.4      474.2       17.4       18.2        8.8     1013.0       21.1       15.2        6.6        0.0        6.6       0.00      197.6       0.48       0.00        6.8
19:46             281        3.2         58       17.4      474.2       17.4       18.3        9.0     1013.0       21.1       15.2        6.6        0.0        6.6       0.00      197.7       0.49       0.00        6.8
19:48             281        1.6         58       17.3      474.2       17.3       18.2        9.0     1013.0       21.1       15.2        6.6        0.0        6.6       0.00      197.8       0.49       0.00        6.8
19:50             281        4.8         58       17.3      474.2       17.3       18.2        9.0     1013.0       21.1       15.2        6.6        0.0        6.6       0.00      197.9       0.49       0.00        6.8
19:52             281        6.4         58       17.3      474.2       17.3       18.2        8.9     1013.1       21.1       15.2        6.6        0.0        6.6       0.00      198.1       0.49       0.00        6.8
19:54             281        6.4         58       17.3      474.2       17.3       18.2        8.9     1013.1       21.1       15.2        6.6        0.0        6.6       0.00      198.2       0.49       0.00        6.8
19:56             281        3.2         59       17.2      474.2       17.2       18.2        9.1     1013.1       21.1       15.2        6.6        0.0        6.6       0.00      198.3       0.49       0.00        6.8
19:58             281        3.2         59       17.2      474.2       17.2       18.2        9.1     1013.1       21.1       15.2        6.6        0.0        6.6       0.00      198.4       0.49       0.00        6.8
20:00             281        9.7         58       17.2      474.2       17.2       18.1        8.8     1013.0       21.1       15.2        6.6        0.0        6.6       0.00      198.6       0.49       0.00        6.8
20:02             281        6.4         59       17.2      474.2       17.2       18.1        9.1     1013.0       21.1       15.2        6.6        0.0        6.6       0.00      198.7       0.50       0.00        6.8
20:04             281        4.8         59       17.2      474.2       17.2       18.1        9.1     1013.2       21.1       15.2        6.6        0.0        6.6       0.00      198.9       0.50       0.00        6.8
20:06             282       11.3         58       17.1      474.2       17.1       18.0        8.8     1013.1       21.1       15.2        6.6        0.0        6.6       0.00      199.0       0.50       0.00        6.8
20:08             283        4.8         58       17.1      474.2       17.1       18.0        8.8     1013.2       21.1       15.2        6.6        0.0        6.6       0.00      199.2       0.50       0.00        6.8
20:10             281       11.3         59       17.1      474.2       17.1       18.1        9.0     1013.2       21.1       15.2        6.6        0.0        6.6       0.00      199.3       0.50       0.00        6.8
20:12             267       14.5         58       17.1      474.2       15.1       18.0        8.8     1013.2       21.1       15.2        6.6        0.0        6.6       0.00      199.6       0.50       0.00        6.8
20:14             269        4.8         58       17.1      474.2       17.1       17.9        8.7     1013.2       21.1       15.2        6.6        0.0        6.6       0.00      199.8       0.50       0.00        6.8
20:16             269        6.4         59       17.1      474.2       17.1       18.0        9.0     1013.1       21.1       15.2        6.6        0.0        6.6       0.00      200.0       0.51       0.00        6.8
20:18             274        4.8         59       17.0      474.2       17.0       17.9        8.9     1013.1       21.1       15.2        6.6        0.0        6.6       0.00      200.2       0.51       0.00        6.8
20:20             274        3.2         59       17.0      474.2       17.0       17.9        8.9     1013.2       21.1       15.2        6.6        0.0        6.6       0.00      200.3       0.51       0.00        6.8
20:22             274        3.2         59       17.0      474.2       17.0       17.9        8.9     1013.3       21.1       15.2        6.6        0.0        6.6       0.00      200.4       0.51       0.00        6.8
20:24             274        3.2         59       17.0      474.2       17.0       17.9        8.9     1013.4       21.1       15.2        6.6        0.0        6.6       0.00      200.4       0.51       0.00        6.8
20:26             274        6.4         59       16.9      474.2       16.9       17.9        8.9     1013.4       21.1       15.2        6.6        0.0        6.6       0.00      200.6       0.51       0.00        6.8
20:28             274        6.4         59       16.9      474.2       16.9       17.8        8.8     1013.3       21.1       15.2        6.6        0.0        6.6       0.00      200.8       0.51       0.00        6.8
20:30             274        3.2         59       16.9      474.2       16.9       17.8        8.8     1013.4       21.1       15.2        6.6        0.0        6.6       0.00      200.9       0.51       0.00        6.8
20:32             274        3.2         60       16.9      474.2       16.9       17.9        9.1     1013.4       21.1       15.2        6.6        0.0        6.6       0.00      201.0       0.52       0.00        6.8
20:34             274        6.4         59       16.9      474.2       16.9       17.8        8.8     1013.4       21.1       15.2        6.6        0.0        6.6       0.00      201.1       0.52       0.00        6.8
20:36             274       11.3         59       16.8      474.2       14.7       17.8        8.8     1013.4       21.1       15.2        6.6        0.0        6.6       0.00      201.2       0.52       0.00        6.8
20:38             275        9.7         60       16.8      474.2       15.3       17.8        9.0     1013.5       21.1       15.2        6.6        0.0        6.6       0.00      201.4       0.52       0.00        6.8
20:40             275        4.8         59       16.8      474.2       16.8       17.8        8.8     1013.5       21.1       15.2        6.6        0.0        6.6       0.00      201.6       0.52       0.00        6.8
20:42             275        6.4         59       16.8      474.2       16.8       17.8        8.8     1013.4       21.1       15.2        6.6        0.0        6.6       0.00      201.7       0.52       0.00        6.8
20:44             274        3.2         60       16.8      474.2       16.8       17.8        9.0     1013.5       21.1       15.2        6.6        0.0        6.6       0.00      201.8       0.52       0.00        6.8
20:46             271       11.3         60       16.8      474.2       16.8       17.8        9.0     1013.6       21.1       15.2        6.6        0.0        6.6       0.00      202.0       0.53       0.00        6.8
20:48             279        4.8         59       16.8      474.2       16.8       17.7        8.7     1013.6       21.1       15.2        6.6        0.0        6.6       0.00      202.2       0.53       0.00        6.8
20:50             279        4.8         59       16.8      474.2       16.8       17.7        8.7     1013.5       21.1       15.2        6.6        0.0        6.6       0.00      202.3       0.53       0.00        6.8
20:52             279        9.7         60       16.8      474.2       16.8       17.8        9.0     1013.5       21.1       15.2        6.6        0.0        6.6       0.00      202.4       0.53       0.00        6.8
20:54             284        9.7         59       16.8      474.2       15.3       17.7        8.7     1013.5       21.1       15.2        6.6        0.0        6.6       0.00      202.7       0.53       0.00        6.8
20:56             286        6.4         59       16.7      474.2       16.7       17.7        8.7     1013.6       21.1       15.2        6.6        0.0        6.6       0.00      202.8       0.53       0.00        6.8
20:58             287        9.7         59       16.7      474.2       16.7       17.7        8.7     1013.6       21.1       15.2        6.6        0.0        6.6       0.00      203.0       0.53       0.00        6.8
21:00             287        9.7         59       16.7      474.2       16.7       17.7        8.7     1013.6       21.1       15.2        6.6        0.0        6.6       0.00      203.1       0.53       0.00        6.8
21:02             288        8.0         59       16.7      474.2       16.7       17.6        8.6     1013.6       21.1       15.2        6.6        0.0        6.6       0.00      203.4       0.55       0.00        6.8
21:04             288       12.9         59       16.6      474.2       15.7       17.6        8.6     1013.7       21.1       15.2        6.6        0.0        6.6       0.00      203.6       0.55       0.00        6.8
21:06             290       11.3         59       16.6      474.2       15.7       17.6        8.6     1013.7       21.1       15.2        6.6        0.0        6.6       0.00      203.9       0.55       0.00        6.8
21:08             281        9.7         59       16.6      474.2       16.6       17.6        8.6     1013.6       21.1       15.2        6.6        0.0        6.6       0.00      204.1       0.55       0.00        6.8
21:10             282       12.9         59       16.6      474.2       16.6       17.6        8.6     1013.7       21.1       15.2        6.6        0.0        6.6       0.00      204.3       0.55       0.00        6.8
21:12             283        6.4         59       16.6      474.2       16.6       17.5        8.5     1013.6       21.1       15.2        6.6        0.0        6.6       0.00      204.5       0.55       0.00        6.8
21:14             284        6.4         60       16.6      474.2       16.6       17.6        8.8     1013.8       21.1       15.2        6.6        0.0        6.6       0.00      204.7       0.55       0.00        6.8
21:16             272        9.7         60       16.5      474.2       15.0       17.5        8.7     1013.8       21.1       15.2        6.6        0.0        6.6       0.00      204.9       0.56       0.00        6.8
21:18             265        9.7         60       16.5      474.2       16.5       17.5        8.7     1013.7       21.1       15.2        6.6        0.0        6.6       0.00      205.1       0.56       0.00        6.8
21:20             286        6.4         60       16.5      474.2       16.5       17.5        8.7     1013.8       21.1       15.2        6.6        0.0        6.6       0.00      205.2       0.56       0.00        6.8
21:22             286        4.8         60       16.4      474.2       16.4       17.4        8.7     1013.7       21.1       15.2        6.6        0.0        6.6       0.00      205.4       0.56       0.00        6.8
21:24             286        4.8         60       16.4      474.2       16.4       17.4        8.7     1013.7       21.1       15.2        6.6        0.0        6.6       0.00      205.6       0.56       0.00        6.8
21:26             290        8.0         60       16.4      474.2       15.5       17.4        8.7     1013.8       21.1       15.2        6.6        0.0        6.6       0.00      205.8       0.56       0.00        6.8
21:28             297        4.8         60       16.4      474.2       16.4       17.4        8.6     1013.7       21.1       15.2        6.6        0.0        6.6       0.00      205.9       0.56       0.00        6.8
21:30             271        9.7         60       16.4      474.2       16.4       17.4        8.6     1013.7       21.1       15.2        6.6        0.0        6.6       0.00      206.1       0.56       0.00        6.8
21:32             269        4.8         60       16.4      474.2       16.4       17.4        8.6     1013.7       21.1       15.2        6.6        0.0        6.6       0.00      206.3       0.58       0.00        6.8
21:34             277        9.7         60       16.4      474.2       16.4       17.4        8.6     1013.7       21.1       15.2        6.6        0.0        6.6       0.00      206.5       0.58       0.00        6.8
21:36             281        9.7         60       16.4      474.2       16.4       17.4        8.6     1013.7       21.1       15.2        6.6        0.0        6.6       0.00      206.7       0.58       0.00        6.8
21:38             282        9.7         60       16.4      474.2       16.4       17.4        8.6     1013.8       21.1       15.2        6.6        0.0        6.6       0.00      207.0       0.58       0.00        6.8
21:40             284        9.7         60       16.4      474.2       14.9       17.4        8.6     1013.8       21.1       15.2        6.6        0.0        6.6       0.00      207.1       0.58       0.00        6.8
21:42             298       14.5         60       16.3      474.2       14.2       17.3        8.6     1013.9       21.1       15.2        6.6        0.0        6.6       0.00      207.4       0.58       0.00        6.8
21:44             293        4.8         60       16.3      474.2       16.3       17.3        8.6     1013.9       21.1       15.2        6.6        0.0        6.6       0.00      207.6       0.58       0.00        6.8
21:46             293       12.9         60       16.3      474.2       16.3       17.3        8.6     1013.9       21.1       15.2        6.6        0.0        6.6       0.00      207.8       0.60       0.00        6.8
21:48             277        4.8         60       16.3      474.2       16.3       17.3        8.6     1013.9       21.1       15.2        6.6        0.0        6.6       0.00      208.0       0.60       0.00        6.8
21:50             295        8.0         60       16.3      474.2       16.3       17.3        8.6     1013.9       21.1       15.2        6.6        0.0        6.6       0.00      208.3       0.60       0.00        6.8
21:52             290       14.5         60       16.3      474.2       16.3       17.3        8.5     1014.0       21.1       15.2        6.6        0.0        6.6       0.00      208.5       0.60       0.00        6.8
21:54             291       11.3         60       16.3      474.2       16.3       17.3        8.5     1014.0       21.1       15.2        6.6        0.0        6.6       0.00      208.6       0.60       0.00        6.8
21:56             295       11.3         60       16.2      474.2       16.2       17.2        8.5     1013.9       21.1       15.2        6.6        0.0        6.6       0.00      208.9       0.60       0.00        6.8
21:58             283       11.3         61       16.2      474.2       16.2       17.3        8.7     1013.9       21.1       15.2        6.6        0.0        6.6       0.00      209.1       0.60       0.00        6.8
22:00             281        9.7         61       16.2      474.2       16.2       17.2        8.6     1013.9       21.1       15.2        6.6        0.0        6.6       0.00      209.4       0.60       0.00        6.8
22:02             297       12.9         61       16.1      474.2       16.1       17.2        8.6     1014.1       21.1       15.2        6.6        0.0        6.6       0.00      209.6       0.61       0.00        6.8
22:04             292        8.0         62       16.1      474.2       16.1       17.2        8.8     1014.1       21.1       15.2        6.6        0.0        6.6       0.00      209.8       0.61       0.00        6.8
22:06             293        6.4         62       16.0      474.2       16.0       17.1        8.7     1014.1       21.1       15.2        6.6        0.0        6.6       0.00      209.9       0.61       0.00        6.8
22:08             286       12.9         62       15.9      474.2       13.7       17.1        8.7     1014.1       21.1       15.2        6.6        0.0        6.6       0.00      210.2       0.61       0.00        6.8
22:10             279       11.3         62       15.9      474.2       15.9       17.0        8.6     1014.1       21.1       15.2        6.6        0.0        6.6       0.00      210.4       0.61       0.00        6.8
22:12             290        6.4         62       15.8      474.2       15.8       17.0        8.6     1014.1       21.1       15.2        6.6        0.0        6.6       0.00      210.6       0.61       0.00        6.8
22:14             293        8.0         63       15.8      474.2       15.8       17.0        8.8     1014.1       21.1       15.2        6.6        0.0        6.6       0.00      210.8       0.61       0.00        6.8
22:16             307        8.0         63       15.7      474.2       15.7       16.9        8.7     1014.1       21.1       15.2        6.6        0.0        6.6       0.00      211.0       0.64       0.00        6.8
22:18             303        6.4         63       15.7      474.2       15.7       16.9        8.7     1014.0       21.1       15.2        6.6        0.0        6.6       0.00      211.2       0.64       0.00        6.8
22:20             292        8.0         63       15.7      474.2       15.7       16.9        8.7     1014.1       21.1       15.2        6.6        0.0        6.6       0.00      211.4       0.64       0.00        6.8
22:22             284        9.7         63       15.6      474.2       15.6       16.8        8.6     1014.1       21.1       15.2        6.6        0.0        6.6       0.00      211.6       0.64       0.00        6.8
22:24             284        6.4         63       15.6      474.2       15.6       16.8        8.6     1014.1       21.1       15.2        6.6        0.0        6.6       0.00      211.8       0.64       0.00        6.8
22:26             281        6.4         63       15.6      474.2       15.6       16.7        8.5     1014.1       21.1       15.2        6.6        0.0        6.6       0.00      212.1       0.64       0.00        6.8
22:28             289       11.3         64       15.6      474.2       13.3       16.8        8.8     1014.1       21.1       15.2        6.6        0.0        6.6       0.00      212.3       0.64       0.00        6.8
22:30             299       12.9         64       15.6      474.2       15.6       16.8        8.8     1014.1       21.1       15.2        6.6        0.0        6.6       0.00      212.6       0.64       0.00        6.8
22:32             296        8.0         64       15.5      474.2       15.5       16.8        8.7     1014.1       21.1       15.2        6.6        0.0        6.6       0.00      212.8       0.66       0.00        6.8
22:34             289        8.0         64       15.5      474.2       14.5       16.8        8.7     1014.1       21.1       15.2        6.6        0.0        6.6       0.00      213.0       0.66       0.00        6.8
22:36             301       12.9         64       15.4      474.2       15.4       16.7        8.7     1014.1       21.1       15.2        6.6        0.0        6.6       0.00      213.2       0.66       0.00        6.8
22:38             280        4.8         64       15.4      474.2       15.4       16.6        8.6     1014.2       21.1       15.2        6.6        0.0        6.6       0.00      213.4       0.66       0.00        6.8
22:40             294       11.3         64       15.4      474.2       15.4       16.6        8.6     1014.1       21.1       15.2        6.6        0.0        6.6       0.00      213.7       0.66       0.00        6.8
22:42             297        8.0         64       15.4      474.2       15.4       16.6        8.6     1014.1       21.1       15.2        6.6        0.0        6.6       0.00      213.9       0.66       0.00        6.8
22:44             299       11.3         64       15.3      474.2       15.3       16.6        8.6     1014.1       21.1       15.2        6.6        0.0        6.6       0.00      214.1       0.66       0.00        6.8
22:46             286       12.9         64       15.3      474.2       12.4       16.6        8.6     1014.1       21.1       15.2        6.6        0.0        6.6       0.00      214.3       0.69       0.00        6.8
22:48             284        9.7         64       15.3      474.2       15.3       16.5        8.5     1014.0       21.1       15.2        6.6        0.0        6.6       0.00      214.6       0.69       0.00        6.8
22:50             286        9.7         65       15.3      474.2       15.3       16.6        8.7     1014.1       21.1       15.2        6.6        0.0        6.6       0.00      214.9       0.69       0.00        6.8
22:52             284        4.8         65       15.3      474.2       15.3       16.6        8.7     1014.1       21.1       15.2        6.6        0.0        6.6       0.00      215.1       0.69       0.00        6.8
22:54             277        9.7         65       15.2      474.2       13.6       16.5        8.7     1014.0       21.1       15.2        6.6        0.0        6.6       0.00      215.3       0.69       0.00        6.8
22:56             262       12.9         65       15.2      474.2       12.3       16.5        8.7     1014.0       21.1       15.2        6.6        0.0        6.6       0.00      215.5       0.69       0.00        6.8
22:58             268        9.7         65       15.2      474.2       15.2       16.5        8.7     1014.0       21.1       15.2        6.6        0.0        6.6       0.00      215.8       0.69       0.00        6.8
23:00             278        6.4         65       15.2      474.2       15.2       16.5        8.7     1014.0       21.1       15.2        6.6        0.0        6.6       0.00      216.1       0.69       0.00        6.8
23:02             272        6.4         65       15.2      474.2       15.2       16.5        8.6     1014.1       21.1       15.2        6.6        0.0        6.6       0.00      216.2       0.72       0.00        6.8
23:04             271       12.9         65       15.2      474.2       13.5       16.5        8.6     1014.1       21.1       15.1        6.6        0.0        6.6       0.00      216.5       0.72       0.00        6.8
23:06             270       17.7         65       15.1      474.2       10.8       16.4        8.6     1014.1       21.1       15.1        6.6        0.0        6.6       0.00      216.8       0.72       0.00        6.8
23:08             279        9.7         65       15.1      474.2       15.1       16.4        8.5     1014.1       21.1       15.1        6.6        0.0        6.6       0.00      217.1       0.72       0.00        6.8
23:10             277       16.1         66       15.1      474.2       15.1       16.4        8.8     1014.1       21.1       15.1        6.6        0.0        6.6       0.00      217.4       0.72       0.00        6.8
23:12             269       20.9         66       15.1      474.2       12.1       16.4        8.8     1014.1       21.1       15.0        6.6        0.0        6.6       0.00      217.8       0.72       0.00        6.8
23:14             271       19.3         66       15.0      474.2       12.0       16.4        8.7     1014.1       21.1       15.0        6.6        0.0        6.6       0.00      218.2       0.72       0.00        6.8
23:16             265       16.1         66       15.0      474.2       10.7       16.4        8.7     1014.1       21.1       15.0        6.6        0.0        6.6       0.00      218.7       0.75       0.00        6.8
23:18             269       12.9         66       15.0      474.2       15.0       16.4        8.7     1014.2       21.1       15.0        6.6        0.0        6.6       0.00      219.1       0.75       0.00        6.8
23:20             277        9.7         66       15.0      474.2       15.0       16.4        8.7     1014.1       21.1       15.0        6.6        0.0        6.6       0.00      219.3       0.75       0.00        6.8
23:22             286        4.8         66       15.0      474.2       15.0       16.4        8.7     1014.0       21.1       15.0        6.6        0.0        6.6       0.00      219.5       0.75       0.00        6.8
23:24             273        9.7         66       14.9      474.2       14.9       16.3        8.7     1014.0       21.1       14.9        6.6        0.0        6.6       0.00      219.8       0.75       0.00        6.8
23:26             275        4.8         66       14.9      474.2       14.9       16.3        8.7     1014.0       21.1       14.9        6.6        0.0        6.6       0.00      220.0       0.75       0.00        6.8
23:28             283        6.4         66       14.9      474.2       14.9       16.3        8.7     1013.9       21.1       14.9        6.6        0.0        6.6       0.00      220.2       0.75       0.00        6.8